Time,TemperatureF,DewpointF,PressureIn,WindDirection,WindDirectionDegrees,WindSpeedMPH,WindSpeedGustMPH,Humidity,HourlyPrecipIn,Conditions,Clouds,dailyrainin,SoftwareType,DateUTC
2013-04-01 00:02:00,37.1,28.9,29.97,ENE,67,1.0,3.0,72,0.00,,,0.00,Wunderground v.1.15,2013-04-01 05:02:00,
2013-04-01 00:03:00,37.0,28.8,29.97,NNW,346,1.0,3.0,72,0.00,,,0.00,Wunderground v.1.15,2013-04-01 05:03:00,
2013-04-01 00:04:00,37.0,28.8,29.97,NNW,338,1.0,3.0,72,0.00,,,0.00,Wunderground v.1.15,2013-04-01 05:04:00,
2013-04-01 00:09:00,37.2,28.3,29.97,NW,322,2.0,4.0,70,0.00,,,0.00,Wunderground v.1.15,2013-04-01 05:09:00,
2013-04-01 00:10:00,37.2,28.3,29.97,North,349,2.0,2.0,70,0.00,,,0.00,Wunderground v.1.15,2013-04-01 05:10:00,
2013-04-01 00:12:00,37.2,28.3,29.97,NNW,342,3.0,3.0,70,0.00,,,0.00,Wunderground v.1.15,2013-04-01 05:12:00,
2013-04-01 00:14:00,37.2,28.3,29.97,NW,309,3.0,3.0,70,0.00,,,0.00,Wunderground v.1.15,2013-04-01 05:14:00,
2013-04-01 00:15:00,37.2,28.0,29.97,NNW,342,3.0,3.0,69,0.00,,,0.00,Wunderground v.1.15,2013-04-01 05:15:00,
2013-04-01 00:18:00,37.2,28.0,29.97,NNW,342,3.0,5.0,69,0.00,,,0.00,Wunderground v.1.15,2013-04-01 05:18:00,
2013-04-01 00:20:00,37.2,27.6,29.97,NNW,342,3.0,5.0,68,0.00,,,0.00,Wunderground v.1.15,2013-04-01 05:20:00,
2013-04-01 00:23:00,37.2,27.6,29.97,NNW,340,3.0,5.0,68,0.00,,,0.00,Wunderground v.1.15,2013-04-01 05:23:00,
2013-04-01 00:24:00,37.2,27.2,29.97,NNW,345,3.0,5.0,67,0.00,,,0.00,Wunderground v.1.15,2013-04-01 05:24:00,
2013-04-01 00:28:00,37.2,27.2,29.98,NNW,338,4.0,8.0,67,0.00,,,0.00,Wunderground v.1.15,2013-04-01 05:28:00,
2013-04-01 00:29:00,37.2,27.2,29.97,NNW,329,3.0,8.0,67,0.00,,,0.00,Wunderground v.1.15,2013-04-01 05:29:00,
2013-04-01 00:31:00,37.2,27.2,29.98,NNW,347,4.0,6.0,67,0.00,,,0.00,Wunderground v.1.15,2013-04-01 05:31:00,
2013-04-01 00:34:00,37.2,26.9,29.98,North,11,4.0,6.0,66,0.00,,,0.00,Wunderground v.1.15,2013-04-01 05:34:00,
2013-04-01 00:35:00,37.2,26.9,29.98,NNW,333,3.0,6.0,66,0.00,,,0.00,Wunderground v.1.15,2013-04-01 05:35:00,
2013-04-01 00:36:00,37.2,27.2,29.98,NNW,346,3.0,6.0,67,0.00,,,0.00,Wunderground v.1.15,2013-04-01 05:36:00,
2013-04-01 00:38:00,37.2,26.9,29.98,WNW,288,3.0,6.0,66,0.00,,,0.00,Wunderground v.1.15,2013-04-01 05:38:00,
2013-04-01 00:40:00,37.2,27.2,29.99,NNW,338,3.0,3.0,67,0.00,,,0.00,Wunderground v.1.15,2013-04-01 05:40:00,
2013-04-01 00:43:00,37.1,27.2,29.99,West,277,3.0,3.0,67,0.00,,,0.00,Wunderground v.1.15,2013-04-01 05:43:00,
2013-04-01 00:44:00,37.2,27.2,29.99,WNW,302,2.0,3.0,67,0.00,,,0.00,Wunderground v.1.15,2013-04-01 05:44:00,
2013-04-01 00:45:00,37.1,27.5,29.99,NNW,343,2.0,3.0,68,0.00,,,0.00,Wunderground v.1.15,2013-04-01 05:45:00,
2013-04-01 00:49:00,37.1,27.2,29.99,WNW,291,2.0,3.0,67,0.00,,,0.00,Wunderground v.1.15,2013-04-01 05:49:00,
2013-04-01 00:50:00,37.1,27.2,29.99,NNW,333,2.0,4.0,67,0.00,,,0.00,Wunderground v.1.15,2013-04-01 05:50:00,
2013-04-01 00:51:00,37.1,26.8,29.99,WNW,293,2.0,4.0,66,0.00,,,0.00,Wunderground v.1.15,2013-04-01 05:51:00,
2013-04-01 00:54:00,37.0,26.7,30.00,NNW,335,2.0,4.0,66,0.00,,,0.00,Wunderground v.1.15,2013-04-01 05:54:00,
2013-04-01 00:55:00,37.0,27.1,30.00,NNW,334,2.0,4.0,67,0.00,,,0.00,Wunderground v.1.15,2013-04-01 05:55:00,
2013-04-01 00:57:00,36.9,27.0,29.99,WNW,288,2.0,4.0,67,0.00,,,0.00,Wunderground v.1.15,2013-04-01 05:57:00,
2013-04-01 01:00:00,36.8,26.9,29.99,NW,316,1.0,2.0,67,0.00,,,0.00,Wunderground v.1.15,2013-04-01 06:00:00,
2013-04-01 01:02:00,36.7,26.8,29.99,NNW,334,1.0,4.0,67,0.00,,,0.00,Wunderground v.1.15,2013-04-01 06:02:00,
2013-04-01 01:04:00,36.6,26.7,30.00,WNW,302,1.0,4.0,67,0.00,,,0.00,Wunderground v.1.15,2013-04-01 06:04:00,
2013-04-01 01:05:00,36.5,26.6,30.00,NNW,336,1.0,4.0,67,0.00,,,0.00,Wunderground v.1.15,2013-04-01 06:05:00,
2013-04-01 01:06:00,36.5,26.6,29.99,WNW,300,1.0,4.0,67,0.00,,,0.00,Wunderground v.1.15,2013-04-01 06:06:00,
2013-04-01 01:10:00,36.4,26.8,29.99,NNW,338,1.0,3.0,68,0.00,,,0.00,Wunderground v.1.15,2013-04-01 06:10:00,
2013-04-01 01:11:00,36.3,26.4,29.99,NW,324,2.0,3.0,67,0.00,,,0.00,Wunderground v.1.15,2013-04-01 06:11:00,
2013-04-01 01:12:00,36.3,26.4,29.99,NW,304,2.0,3.0,67,0.00,,,0.00,Wunderground v.1.15,2013-04-01 06:12:00,
2013-04-01 01:15:00,36.1,26.6,29.99,NW,312,2.0,3.0,68,0.00,,,0.00,Wunderground v.1.15,2013-04-01 06:15:00,
2013-04-01 01:16:00,36.1,26.6,30.00,NNW,334,2.0,3.0,68,0.00,,,0.00,Wunderground v.1.15,2013-04-01 06:16:00,
2013-04-01 01:19:00,36.0,26.1,30.00,WNW,284,2.0,4.0,67,0.00,,,0.00,Wunderground v.1.15,2013-04-01 06:19:00,
2013-04-01 01:21:00,36.0,26.1,30.00,NNW,346,2.0,4.0,67,0.00,,,0.00,Wunderground v.1.15,2013-04-01 06:21:00,
2013-04-01 01:23:00,36.0,26.1,30.00,NNW,340,2.0,4.0,67,0.00,,,0.00,Wunderground v.1.15,2013-04-01 06:23:00,
2013-04-01 01:24:00,35.9,26.0,30.00,WNW,295,2.0,4.0,67,0.00,,,0.00,Wunderground v.1.15,2013-04-01 06:24:00,
2013-04-01 01:25:00,35.9,26.0,30.00,NW,326,2.0,4.0,67,0.00,,,0.00,Wunderground v.1.15,2013-04-01 06:25:00,
2013-04-01 01:28:00,35.8,25.9,30.01,North,349,2.0,4.0,67,0.00,,,0.00,Wunderground v.1.15,2013-04-01 06:28:00,
2013-04-01 01:30:00,35.8,25.5,30.01,NNW,333,2.0,2.0,66,0.00,,,0.00,Wunderground v.1.15,2013-04-01 06:30:00,
2013-04-01 01:32:00,35.7,25.8,30.00,NNW,338,2.0,4.0,67,0.00,,,0.00,Wunderground v.1.15,2013-04-01 06:32:00,
2013-04-01 01:33:00,35.6,25.7,30.00,NNW,335,2.0,4.0,67,0.00,,,0.00,Wunderground v.1.15,2013-04-01 06:33:00,
2013-04-01 01:36:00,35.5,25.6,30.00,NW,307,2.0,4.0,67,0.00,,,0.00,Wunderground v.1.15,2013-04-01 06:36:00,
2013-04-01 01:38:00,35.5,25.6,30.00,NW,305,2.0,4.0,67,0.00,,,0.00,Wunderground v.1.15,2013-04-01 06:38:00,
2013-04-01 01:39:00,35.4,25.9,30.00,NNW,330,2.0,4.0,68,0.00,,,0.00,Wunderground v.1.15,2013-04-01 06:39:00,
2013-04-01 01:41:00,35.3,25.8,30.00,NNW,331,2.0,2.0,68,0.00,,,0.00,Wunderground v.1.15,2013-04-01 06:41:00,
2013-04-01 01:46:00,35.2,25.7,30.01,NNW,346,2.0,4.0,68,0.00,,,0.00,Wunderground v.1.15,2013-04-01 06:46:00,
2013-04-01 01:47:00,35.1,25.2,30.01,North,356,2.0,5.0,67,0.00,,,0.00,Wunderground v.1.15,2013-04-01 06:47:00,
2013-04-01 01:48:00,35.1,25.2,30.01,NNW,343,2.0,5.0,67,0.00,,,0.00,Wunderground v.1.15,2013-04-01 06:48:00,
2013-04-01 01:50:00,35.1,25.2,30.01,NW,304,2.0,2.0,67,0.00,,,0.00,Wunderground v.1.15,2013-04-01 06:50:00,
2013-04-01 01:53:00,35.0,25.5,30.01,WNW,288,2.0,2.0,68,0.00,,,0.00,Wunderground v.1.15,2013-04-01 06:53:00,
2013-04-01 01:54:00,34.9,25.4,30.01,WNW,291,2.0,2.0,68,0.00,,,0.00,Wunderground v.1.15,2013-04-01 06:54:00,
2013-04-01 01:55:00,34.9,25.4,30.01,NNW,336,2.0,3.0,68,0.00,,,0.00,Wunderground v.1.15,2013-04-01 06:55:00,
2013-04-01 01:57:00,34.8,25.7,30.01,NNW,335,1.0,3.0,69,0.00,,,0.00,Wunderground v.1.15,2013-04-01 06:57:00,
2013-04-01 01:58:00,34.7,25.6,30.01,WNW,298,1.0,3.0,69,0.00,,,0.00,Wunderground v.1.15,2013-04-01 06:58:00,
2013-04-01 01:59:00,34.6,25.5,30.01,NW,316,1.0,3.0,69,0.00,,,0.00,Wunderground v.1.15,2013-04-01 06:59:00,
2013-04-01 02:01:00,34.6,25.5,30.01,NNW,331,1.0,1.0,69,0.00,,,0.00,Wunderground v.1.15,2013-04-01 07:01:00,
2013-04-01 02:03:00,34.4,25.6,30.01,NW,319,1.0,2.0,70,0.00,,,0.00,Wunderground v.1.15,2013-04-01 07:03:00,
2013-04-01 02:04:00,34.4,25.3,30.02,NW,315,1.0,2.0,69,0.00,,,0.00,Wunderground v.1.15,2013-04-01 07:04:00,
2013-04-01 02:06:00,34.4,25.6,30.01,NNE,22,1.0,2.0,70,0.00,,,0.00,Wunderground v.1.15,2013-04-01 07:06:00,
2013-04-01 02:10:00,34.3,25.5,30.02,NNW,328,1.0,1.0,70,0.00,,,0.00,Wunderground v.1.15,2013-04-01 07:10:00,
2013-04-01 02:11:00,34.3,25.5,30.01,North,349,1.0,1.0,70,0.00,,,0.00,Wunderground v.1.15,2013-04-01 07:11:00,
2013-04-01 02:13:00,34.2,25.8,30.01,NW,311,1.0,1.0,71,0.00,,,0.00,Wunderground v.1.15,2013-04-01 07:13:00,
2013-04-01 02:16:00,34.1,25.7,30.02,NNW,342,0.0,1.0,71,0.00,,,0.00,Wunderground v.1.15,2013-04-01 07:16:00,
2013-04-01 02:17:00,34.0,25.6,30.02,NW,311,0.0,1.0,71,0.00,,,0.00,Wunderground v.1.15,2013-04-01 07:17:00,
2013-04-01 02:18:00,34.0,25.6,30.02,NNW,345,0.0,1.0,71,0.00,,,0.00,Wunderground v.1.15,2013-04-01 07:18:00,
2013-04-01 02:20:00,33.9,25.8,30.02,NNW,327,0.0,1.0,72,0.00,,,0.00,Wunderground v.1.15,2013-04-01 07:20:00,
2013-04-01 02:24:00,33.7,25.6,30.02,NNW,338,0.0,1.0,72,0.00,,,0.00,Wunderground v.1.15,2013-04-01 07:24:00,
2013-04-01 02:26:00,33.6,25.5,30.02,NNW,331,0.0,1.0,72,0.00,,,0.00,Wunderground v.1.15,2013-04-01 07:26:00,
2013-04-01 02:27:00,33.6,25.5,30.02,WNW,291,0.0,1.0,72,0.00,,,0.00,Wunderground v.1.15,2013-04-01 07:27:00,
2013-04-01 02:30:00,33.5,25.4,30.02,North,360,0.0,0.0,72,0.00,,,0.00,Wunderground v.1.15,2013-04-01 07:30:00,
2013-04-01 02:33:00,33.5,25.8,30.02,NW,316,0.0,1.0,73,0.00,,,0.00,Wunderground v.1.15,2013-04-01 07:33:00,
2013-04-01 02:35:00,33.4,25.7,30.02,NW,326,0.0,1.0,73,0.00,,,0.00,Wunderground v.1.15,2013-04-01 07:35:00,
2013-04-01 02:38:00,33.3,25.6,30.02,WNW,289,0.0,2.0,73,0.00,,,0.00,Wunderground v.1.15,2013-04-01 07:38:00,
2013-04-01 02:39:00,33.2,25.5,30.02,WNW,289,0.0,2.0,73,0.00,,,0.00,Wunderground v.1.15,2013-04-01 07:39:00,
2013-04-01 02:42:00,33.2,25.5,30.02,NW,325,0.0,0.0,73,0.00,,,0.00,Wunderground v.1.15,2013-04-01 07:42:00,
2013-04-01 02:44:00,33.3,25.6,30.02,NW,322,0.0,0.0,73,0.00,,,0.00,Wunderground v.1.15,2013-04-01 07:44:00,
2013-04-01 02:45:00,33.3,25.6,30.02,NW,325,0.0,0.0,73,0.00,,,0.00,Wunderground v.1.15,2013-04-01 07:45:00,
2013-04-01 02:49:00,33.3,25.9,30.03,NW,318,0.0,1.0,74,0.00,,,0.00,Wunderground v.1.15,2013-04-01 07:49:00,
2013-04-01 02:50:00,33.3,25.9,30.03,NW,318,0.0,0.0,74,0.00,,,0.00,Wunderground v.1.15,2013-04-01 07:50:00,
2013-04-01 02:52:00,33.2,25.8,30.03,NNW,331,0.0,0.0,74,0.00,,,0.00,Wunderground v.1.15,2013-04-01 07:52:00,
2013-04-01 02:54:00,33.3,25.9,30.03,NW,319,0.0,0.0,74,0.00,,,0.00,Wunderground v.1.15,2013-04-01 07:54:00,
2013-04-01 02:55:00,33.3,25.9,30.03,NW,315,0.0,0.0,74,0.00,,,0.00,Wunderground v.1.15,2013-04-01 07:55:00,
2013-04-01 02:58:00,33.3,25.9,30.03,NW,326,0.0,0.0,74,0.00,,,0.00,Wunderground v.1.15,2013-04-01 07:58:00,
2013-04-01 02:59:00,33.3,25.9,30.03,NW,326,0.0,1.0,74,0.00,,,0.00,Wunderground v.1.15,2013-04-01 07:59:00,
2013-04-01 03:04:00,33.4,26.0,30.03,North,351,0.0,1.0,74,0.00,,,0.00,Wunderground v.1.15,2013-04-01 08:04:00,
2013-04-01 03:05:00,33.4,26.0,30.03,WNW,298,0.0,1.0,74,0.00,,,0.00,Wunderground v.1.15,2013-04-01 08:05:00,
2013-04-01 03:08:00,33.4,26.0,30.03,North,357,1.0,1.0,74,0.00,,,0.00,Wunderground v.1.15,2013-04-01 08:08:00,
2013-04-01 03:11:00,33.4,26.0,30.03,NNW,335,1.0,1.0,74,0.00,,,0.00,Wunderground v.1.15,2013-04-01 08:11:00,
2013-04-01 03:12:00,33.3,25.9,30.03,NNW,336,1.0,3.0,74,0.00,,,0.00,Wunderground v.1.15,2013-04-01 08:12:00,
2013-04-01 03:14:00,33.3,26.2,30.03,NNW,338,1.0,3.0,75,0.00,,,0.00,Wunderground v.1.15,2013-04-01 08:14:00,
2013-04-01 03:15:00,33.3,26.2,30.03,WNW,288,1.0,3.0,75,0.00,,,0.00,Wunderground v.1.15,2013-04-01 08:15:00,
2013-04-01 03:16:00,33.2,25.8,30.03,NNW,339,1.0,3.0,74,0.00,,,0.00,Wunderground v.1.15,2013-04-01 08:16:00,
2013-04-01 03:19:00,33.2,25.8,30.03,NW,324,1.0,3.0,74,0.00,,,0.00,Wunderground v.1.15,2013-04-01 08:19:00,
2013-04-01 03:20:00,33.2,26.1,30.03,WNW,291,1.0,1.0,75,0.00,,,0.00,Wunderground v.1.15,2013-04-01 08:20:00,
2013-04-01 03:23:00,33.2,26.1,30.03,NW,318,1.0,1.0,75,0.00,,,0.00,Wunderground v.1.15,2013-04-01 08:23:00,
2013-04-01 03:25:00,33.1,26.0,30.04,North,353,1.0,3.0,75,0.00,,,0.00,Wunderground v.1.15,2013-04-01 08:25:00,
2013-04-01 03:26:00,33.1,26.0,30.04,NNW,348,1.0,3.0,75,0.00,,,0.00,Wunderground v.1.15,2013-04-01 08:26:00,
2013-04-01 03:31:00,32.9,25.8,30.04,NW,325,1.0,1.0,75,0.00,,,0.00,Wunderground v.1.15,2013-04-01 08:31:00,
2013-04-01 03:32:00,32.8,25.7,30.04,North,353,1.0,1.0,75,0.00,,,0.00,Wunderground v.1.15,2013-04-01 08:32:00,
2013-04-01 03:35:00,32.7,25.6,30.04,WNW,294,1.0,3.0,75,0.00,,,0.00,Wunderground v.1.15,2013-04-01 08:35:00,
2013-04-01 03:38:00,32.6,25.6,30.04,NW,322,1.0,3.0,75,0.00,,,0.00,Wunderground v.1.15,2013-04-01 08:38:00,
2013-04-01 03:39:00,32.5,25.5,30.04,NNW,334,1.0,3.0,75,0.00,,,0.00,Wunderground v.1.15,2013-04-01 08:39:00,
2013-04-01 03:40:00,32.5,25.5,30.04,NW,322,1.0,1.0,75,0.00,,,0.00,Wunderground v.1.15,2013-04-01 08:40:00,
2013-04-01 03:41:00,32.4,25.4,30.04,NW,321,1.0,1.0,75,0.00,,,0.00,Wunderground v.1.15,2013-04-01 08:41:00,
2013-04-01 03:45:00,32.1,25.1,30.04,NW,322,0.0,1.0,75,0.00,,,0.00,Wunderground v.1.15,2013-04-01 08:45:00,
2013-04-01 03:47:00,32.0,25.0,30.04,North,6,0.0,1.0,75,0.00,,,0.00,Wunderground v.1.15,2013-04-01 08:47:00,
2013-04-01 03:49:00,31.9,24.9,30.04,NNW,338,0.0,1.0,75,0.00,,,0.00,Wunderground v.1.15,2013-04-01 08:49:00,
2013-04-01 03:50:00,31.9,24.9,30.05,North,349,0.0,0.0,75,0.00,,,0.00,Wunderground v.1.15,2013-04-01 08:50:00,
2013-04-01 03:52:00,31.7,25.0,30.05,NW,304,0.0,0.0,76,0.00,,,0.00,Wunderground v.1.15,2013-04-01 08:52:00,
2013-04-01 03:57:00,31.4,24.7,30.05,NNW,334,0.0,1.0,76,0.00,,,0.00,Wunderground v.1.15,2013-04-01 08:57:00,
2013-04-01 03:58:00,31.4,24.7,30.05,NNW,338,0.0,1.0,76,0.00,,,0.00,Wunderground v.1.15,2013-04-01 08:58:00,
2013-04-01 04:02:00,31.2,24.8,30.05,NNW,333,0.0,1.0,77,0.00,,,0.00,Wunderground v.1.15,2013-04-01 09:02:00,
2013-04-01 04:03:00,31.1,24.7,30.05,NW,326,0.0,1.0,77,0.00,,,0.00,Wunderground v.1.15,2013-04-01 09:03:00,
2013-04-01 04:04:00,31.1,24.7,30.05,NW,322,0.0,1.0,77,0.00,,,0.00,Wunderground v.1.15,2013-04-01 09:04:00,
2013-04-01 04:05:00,31.0,24.6,30.05,NNW,331,0.0,1.0,77,0.00,,,0.00,Wunderground v.1.15,2013-04-01 09:05:00,
2013-04-01 04:08:00,31.0,24.6,30.05,NW,322,0.0,1.0,77,0.00,,,0.00,Wunderground v.1.15,2013-04-01 09:08:00,
2013-04-01 04:10:00,30.8,24.4,30.05,NNW,342,0.0,0.0,77,0.00,,,0.00,Wunderground v.1.15,2013-04-01 09:10:00,
2013-04-01 04:11:00,30.8,24.7,30.05,NNW,331,0.0,0.0,78,0.00,,,0.00,Wunderground v.1.15,2013-04-01 09:11:00,
2013-04-01 04:13:00,30.6,24.6,30.06,NNW,344,0.0,0.0,78,0.00,,,0.00,Wunderground v.1.15,2013-04-01 09:13:00,
2013-04-01 04:16:00,30.4,24.4,30.06,North,354,0.0,0.0,78,0.00,,,0.00,Wunderground v.1.15,2013-04-01 09:16:00,
2013-04-01 04:17:00,30.4,24.4,30.06,WNW,291,0.0,0.0,78,0.00,,,0.00,Wunderground v.1.15,2013-04-01 09:17:00,
2013-04-01 04:20:00,30.3,24.3,30.06,NW,319,0.0,0.0,78,0.00,,,0.00,Wunderground v.1.15,2013-04-01 09:20:00,
2013-04-01 04:23:00,30.1,24.4,30.06,NW,325,0.0,0.0,79,0.00,,,0.00,Wunderground v.1.15,2013-04-01 09:23:00,
2013-04-01 04:24:00,30.0,24.3,30.06,WNW,300,0.0,0.0,79,0.00,,,0.00,Wunderground v.1.15,2013-04-01 09:24:00,
2013-04-01 04:25:00,30.0,24.3,30.06,NW,325,0.0,0.0,79,0.00,,,0.00,Wunderground v.1.15,2013-04-01 09:25:00,
2013-04-01 04:29:00,30.0,24.3,30.06,NW,307,0.0,1.0,79,0.00,,,0.00,Wunderground v.1.15,2013-04-01 09:29:00,
2013-04-01 04:31:00,29.9,24.5,30.06,NW,314,0.0,0.0,80,0.00,,,0.00,Wunderground v.1.15,2013-04-01 09:31:00,
2013-04-01 04:32:00,29.8,24.4,30.06,NW,316,0.0,0.0,80,0.00,,,0.00,Wunderground v.1.15,2013-04-01 09:32:00,
2013-04-01 04:33:00,29.7,24.3,30.06,NNW,331,0.0,0.0,80,0.00,,,0.00,Wunderground v.1.15,2013-04-01 09:33:00,
2013-04-01 04:37:00,29.7,24.3,30.06,NW,311,0.0,0.0,80,0.00,,,0.00,Wunderground v.1.15,2013-04-01 09:37:00,
2013-04-01 04:38:00,29.6,24.2,30.06,NW,322,0.0,0.0,80,0.00,,,0.00,Wunderground v.1.15,2013-04-01 09:38:00,
2013-04-01 04:40:00,29.6,24.2,30.06,NW,322,0.0,0.0,80,0.00,,,0.00,Wunderground v.1.15,2013-04-01 09:40:00,
2013-04-01 04:43:00,29.5,24.1,30.06,NW,319,0.0,0.0,80,0.00,,,0.00,Wunderground v.1.15,2013-04-01 09:43:00,
2013-04-01 04:45:00,29.4,24.3,30.07,NW,312,0.0,0.0,81,0.00,,,0.00,Wunderground v.1.15,2013-04-01 09:45:00,
2013-04-01 04:46:00,29.4,24.3,30.07,NW,315,0.0,0.0,81,0.00,,,0.00,Wunderground v.1.15,2013-04-01 09:46:00,
2013-04-01 04:47:00,29.3,24.2,30.07,WNW,292,0.0,0.0,81,0.00,,,0.00,Wunderground v.1.15,2013-04-01 09:47:00,
2013-04-01 04:48:00,29.3,24.2,30.07,WNW,300,0.0,0.0,81,0.00,,,0.00,Wunderground v.1.15,2013-04-01 09:48:00,
2013-04-01 04:51:00,29.1,24.0,30.07,NNW,332,0.0,0.0,81,0.00,,,0.00,Wunderground v.1.15,2013-04-01 09:51:00,
2013-04-01 04:53:00,28.9,24.1,30.07,NW,309,0.0,0.0,82,0.00,,,0.00,Wunderground v.1.15,2013-04-01 09:53:00,
2013-04-01 04:56:00,28.9,24.1,30.07,NNW,328,0.0,0.0,82,0.00,,,0.00,Wunderground v.1.15,2013-04-01 09:56:00,
2013-04-01 04:59:00,28.8,24.0,30.07,NNW,338,0.0,0.0,82,0.00,,,0.00,Wunderground v.1.15,2013-04-01 09:59:00,
2013-04-01 05:01:00,28.7,23.9,30.07,NNW,334,0.0,0.0,82,0.00,,,0.00,Wunderground v.1.15,2013-04-01 10:01:00,
2013-04-01 05:02:00,28.7,23.9,30.07,NW,318,0.0,0.0,82,0.00,,,0.00,Wunderground v.1.15,2013-04-01 10:02:00,
2013-04-01 05:04:00,28.7,23.9,30.07,NW,311,0.0,0.0,82,0.00,,,0.00,Wunderground v.1.15,2013-04-01 10:04:00,
2013-04-01 05:07:00,28.6,24.1,30.07,NW,304,0.0,0.0,83,0.00,,,0.00,Wunderground v.1.15,2013-04-01 10:07:00,
2013-04-01 05:09:00,28.5,24.0,30.07,NW,318,0.0,0.0,83,0.00,,,0.00,Wunderground v.1.15,2013-04-01 10:09:00,
2013-04-01 05:11:00,28.5,24.0,30.07,NNW,340,0.0,0.0,83,0.00,,,0.00,Wunderground v.1.15,2013-04-01 10:11:00,
2013-04-01 05:16:00,28.4,23.9,30.08,NW,326,0.0,0.0,83,0.00,,,0.00,Wunderground v.1.15,2013-04-01 10:16:00,
2013-04-01 05:17:00,28.4,23.9,30.07,NNW,334,0.0,0.0,83,0.00,,,0.00,Wunderground v.1.15,2013-04-01 10:17:00,
2013-04-01 05:18:00,28.4,23.9,30.07,NW,309,0.0,0.0,83,0.00,,,0.00,Wunderground v.1.15,2013-04-01 10:18:00,
2013-04-01 05:20:00,28.4,24.2,30.08,North,352,0.0,0.0,84,0.00,,,0.00,Wunderground v.1.15,2013-04-01 10:20:00,
2013-04-01 05:22:00,28.3,24.1,30.08,NNW,329,0.0,0.0,84,0.00,,,0.00,Wunderground v.1.15,2013-04-01 10:22:00,
2013-04-01 05:27:00,28.2,24.0,30.08,NW,322,0.0,0.0,84,0.00,,,0.00,Wunderground v.1.15,2013-04-01 10:27:00,
2013-04-01 05:28:00,28.2,24.0,30.08,NNW,336,0.0,0.0,84,0.00,,,0.00,Wunderground v.1.15,2013-04-01 10:28:00,
2013-04-01 05:30:00,28.2,24.0,30.08,NW,319,0.0,0.0,84,0.00,,,0.00,Wunderground v.1.15,2013-04-01 10:30:00,
2013-04-01 05:32:00,28.2,24.0,30.08,NNW,335,0.0,0.0,84,0.00,,,0.00,Wunderground v.1.15,2013-04-01 10:32:00,
2013-04-01 05:33:00,28.2,24.0,30.08,NW,316,0.0,0.0,84,0.00,,,0.00,Wunderground v.1.15,2013-04-01 10:33:00,
2013-04-01 05:35:00,28.1,23.9,30.08,NW,315,0.0,0.0,84,0.00,,,0.00,Wunderground v.1.15,2013-04-01 10:35:00,
2013-04-01 05:36:00,28.1,23.9,30.08,NNW,335,0.0,0.0,84,0.00,,,0.00,Wunderground v.1.15,2013-04-01 10:36:00,
2013-04-01 05:39:00,28.1,23.9,30.08,NW,315,0.0,0.0,84,0.00,,,0.00,Wunderground v.1.15,2013-04-01 10:39:00,
2013-04-01 05:41:00,28.1,23.9,30.08,WNW,299,0.0,1.0,84,0.00,,,0.00,Wunderground v.1.15,2013-04-01 10:41:00,
2013-04-01 05:44:00,28.0,23.8,30.08,NW,319,0.0,1.0,84,0.00,,,0.00,Wunderground v.1.15,2013-04-01 10:44:00,
2013-04-01 05:45:00,28.0,23.8,30.09,NNW,329,0.0,1.0,84,0.00,,,0.00,Wunderground v.1.15,2013-04-01 10:45:00,
2013-04-01 05:47:00,28.0,23.8,30.09,NNW,335,0.0,1.0,84,0.00,,,0.00,Wunderground v.1.15,2013-04-01 10:47:00,
2013-04-01 05:49:00,27.9,23.7,30.09,WNW,298,0.0,1.0,84,0.00,,,0.00,Wunderground v.1.15,2013-04-01 10:49:00,
2013-04-01 05:50:00,27.9,23.7,30.09,NW,326,0.0,0.0,84,0.00,,,0.00,Wunderground v.1.15,2013-04-01 10:50:00,
2013-04-01 05:52:00,27.8,23.6,30.09,WNW,302,0.0,0.0,84,0.00,,,0.00,Wunderground v.1.15,2013-04-01 10:52:00,
2013-04-01 05:53:00,27.9,23.7,30.09,NNW,331,0.0,0.0,84,0.00,,,0.00,Wunderground v.1.15,2013-04-01 10:53:00,
2013-04-01 05:56:00,27.8,23.6,30.09,NNW,338,0.0,0.0,84,0.00,,,0.00,Wunderground v.1.15,2013-04-01 10:56:00,
2013-04-01 05:59:00,27.8,23.9,30.09,NNW,342,0.0,0.0,85,0.00,,,0.00,Wunderground v.1.15,2013-04-01 10:59:00,
2013-04-01 06:01:00,27.8,23.9,30.09,NNW,335,0.0,0.0,85,0.00,,,0.00,Wunderground v.1.15,2013-04-01 11:01:00,
2013-04-01 06:02:00,27.8,23.6,30.09,NNW,341,0.0,0.0,84,0.00,,,0.00,Wunderground v.1.15,2013-04-01 11:02:00,
2013-04-01 06:04:00,27.8,23.9,30.09,NW,316,0.0,0.0,85,0.00,,,0.00,Wunderground v.1.15,2013-04-01 11:04:00,
2013-04-01 06:06:00,27.8,23.9,30.09,NW,319,0.0,0.0,85,0.00,,,0.00,Wunderground v.1.15,2013-04-01 11:06:00,
2013-04-01 06:09:00,27.8,23.9,30.09,NNW,347,0.0,0.0,85,0.00,,,0.00,Wunderground v.1.15,2013-04-01 11:09:00,
2013-04-01 06:11:00,27.7,23.5,30.09,WNW,293,0.0,0.0,84,0.00,,,0.00,Wunderground v.1.15,2013-04-01 11:11:00,
2013-04-01 06:12:00,27.7,23.5,30.09,North,357,0.0,0.0,84,0.00,,,0.00,Wunderground v.1.15,2013-04-01 11:12:00,
2013-04-01 06:13:00,27.7,23.5,30.09,NNW,331,0.0,0.0,84,0.00,,,0.00,Wunderground v.1.15,2013-04-01 11:13:00,
2013-04-01 06:17:00,27.7,23.8,30.10,NNW,333,0.0,0.0,85,0.00,,,0.00,Wunderground v.1.15,2013-04-01 11:17:00,
2013-04-01 06:18:00,27.6,23.7,30.10,NNW,332,0.0,0.0,85,0.00,,,0.00,Wunderground v.1.15,2013-04-01 11:18:00,
2013-04-01 06:20:00,27.5,23.6,30.10,North,360,0.0,0.0,85,0.00,,,0.00,Wunderground v.1.15,2013-04-01 11:20:00,
2013-04-01 06:24:00,27.5,23.6,30.10,NNW,335,0.0,0.0,85,0.00,,,0.00,Wunderground v.1.15,2013-04-01 11:24:00,
2013-04-01 06:25:00,27.5,23.6,30.10,NNW,329,0.0,0.0,85,0.00,,,0.00,Wunderground v.1.15,2013-04-01 11:25:00,
2013-04-01 06:27:00,27.5,23.6,30.10,NNW,333,0.0,0.0,85,0.00,,,0.00,Wunderground v.1.15,2013-04-01 11:27:00,
2013-04-01 06:28:00,27.5,23.6,30.10,NNW,342,0.0,0.0,85,0.00,,,0.00,Wunderground v.1.15,2013-04-01 11:28:00,
2013-04-01 06:29:00,27.5,23.6,30.11,NNW,336,0.0,0.0,85,0.00,,,0.00,Wunderground v.1.15,2013-04-01 11:29:00,
2013-04-01 06:30:00,27.4,23.5,30.11,NW,319,0.0,0.0,85,0.00,,,0.00,Wunderground v.1.15,2013-04-01 11:30:00,
2013-04-01 06:33:00,27.4,23.5,30.11,NW,324,0.0,0.0,85,0.00,,,0.00,Wunderground v.1.15,2013-04-01 11:33:00,
2013-04-01 06:36:00,27.4,23.5,30.11,NW,315,0.0,0.0,85,0.00,,,0.00,Wunderground v.1.15,2013-04-01 11:36:00,
2013-04-01 06:38:00,27.3,23.4,30.11,NW,304,0.0,0.0,85,0.00,,,0.00,Wunderground v.1.15,2013-04-01 11:38:00,
2013-04-01 06:39:00,27.3,23.4,30.11,NNW,342,0.0,1.0,85,0.00,,,0.00,Wunderground v.1.15,2013-04-01 11:39:00,
2013-04-01 06:42:00,27.3,23.4,30.11,NW,318,0.0,0.0,85,0.00,,,0.00,Wunderground v.1.15,2013-04-01 11:42:00,
2013-04-01 06:44:00,27.3,23.4,30.11,NNW,327,0.0,0.0,85,0.00,,,0.00,Wunderground v.1.15,2013-04-01 11:44:00,
2013-04-01 06:45:00,27.3,23.4,30.11,NNW,345,0.0,0.0,85,0.00,,,0.00,Wunderground v.1.15,2013-04-01 11:45:00,
2013-04-01 06:47:00,27.3,23.4,30.11,North,358,0.0,0.0,85,0.00,,,0.00,Wunderground v.1.15,2013-04-01 11:47:00,
2013-04-01 06:49:00,27.3,23.4,30.11,NW,317,0.0,0.0,85,0.00,,,0.00,Wunderground v.1.15,2013-04-01 11:49:00,
2013-04-01 06:50:00,27.3,23.4,30.12,NNW,332,0.0,0.0,85,0.00,,,0.00,Wunderground v.1.15,2013-04-01 11:50:00,
2013-04-01 06:55:00,27.3,23.4,30.12,NNW,346,0.0,0.0,85,0.00,,,0.00,Wunderground v.1.15,2013-04-01 11:55:00,
2013-04-01 06:56:00,27.3,23.4,30.12,WNW,298,0.0,0.0,85,0.00,,,0.00,Wunderground v.1.15,2013-04-01 11:56:00,
2013-04-01 06:58:00,27.3,23.4,30.12,NNW,344,0.0,0.0,85,0.00,,,0.00,Wunderground v.1.15,2013-04-01 11:58:00,
2013-04-01 06:59:00,27.4,23.5,30.12,NW,319,0.0,0.0,85,0.00,,,0.00,Wunderground v.1.15,2013-04-01 11:59:00,
2013-04-01 07:03:00,27.5,23.6,30.12,NNW,338,0.0,1.0,85,0.00,,,0.00,Wunderground v.1.15,2013-04-01 12:03:00,
2013-04-01 07:04:00,27.5,23.6,30.12,NNW,335,0.0,1.0,85,0.00,,,0.00,Wunderground v.1.15,2013-04-01 12:04:00,
2013-04-01 07:05:00,27.6,23.7,30.12,NNW,338,0.0,1.0,85,0.00,,,0.00,Wunderground v.1.15,2013-04-01 12:05:00,
2013-04-01 07:11:00,27.7,23.8,30.13,NW,305,0.0,0.0,85,0.00,,,0.00,Wunderground v.1.15,2013-04-01 12:11:00,
2013-04-01 07:12:00,27.8,23.9,30.13,NNW,333,0.0,0.0,85,0.00,,,0.00,Wunderground v.1.15,2013-04-01 12:12:00,
2013-04-01 07:13:00,27.9,24.0,30.13,NNW,343,0.0,0.0,85,0.00,,,0.00,Wunderground v.1.15,2013-04-01 12:13:00,
2013-04-01 07:15:00,28.0,23.8,30.13,WNW,291,0.0,0.0,84,0.00,,,0.00,Wunderground v.1.15,2013-04-01 12:15:00,
2013-04-01 07:16:00,28.1,23.9,30.13,WNW,290,0.0,0.0,84,0.00,,,0.00,Wunderground v.1.15,2013-04-01 12:16:00,
2013-04-01 07:21:00,28.5,24.3,30.14,NW,314,0.0,0.0,84,0.00,,,0.00,Wunderground v.1.15,2013-04-01 12:21:00,
2013-04-01 07:22:00,28.5,24.3,30.14,WNW,300,0.0,0.0,84,0.00,,,0.00,Wunderground v.1.15,2013-04-01 12:22:00,
2013-04-01 07:24:00,28.7,24.5,30.14,WNW,295,0.0,0.0,84,0.00,,,0.00,Wunderground v.1.15,2013-04-01 12:24:00,
2013-04-01 07:25:00,28.8,24.3,30.14,NNW,335,0.0,0.0,83,0.00,,,0.00,Wunderground v.1.15,2013-04-01 12:25:00,
2013-04-01 07:29:00,28.9,24.4,30.14,NNW,338,0.0,0.0,83,0.00,,,0.00,Wunderground v.1.15,2013-04-01 12:29:00,
2013-04-01 07:30:00,29.0,24.5,30.14,NNW,334,0.0,1.0,83,0.00,,,0.00,Wunderground v.1.15,2013-04-01 12:30:00,
2013-04-01 07:35:00,29.2,24.4,30.14,NNW,336,0.0,1.0,82,0.00,,,0.00,Wunderground v.1.15,2013-04-01 12:35:00,
2013-04-01 07:36:00,29.3,24.5,30.14,NW,314,0.0,1.0,82,0.00,,,0.00,Wunderground v.1.15,2013-04-01 12:36:00,
2013-04-01 07:38:00,29.4,24.6,30.15,WNW,292,0.0,1.0,82,0.00,,,0.00,Wunderground v.1.15,2013-04-01 12:38:00,
2013-04-01 07:40:00,29.6,24.8,30.15,NW,316,0.0,0.0,82,0.00,,,0.00,Wunderground v.1.15,2013-04-01 12:40:00,
2013-04-01 07:43:00,29.7,24.9,30.15,NNW,335,0.0,0.0,82,0.00,,,0.00,Wunderground v.1.15,2013-04-01 12:43:00,
2013-04-01 07:44:00,29.7,24.9,30.15,NW,322,0.0,1.0,82,0.00,,,0.00,Wunderground v.1.15,2013-04-01 12:44:00,
2013-04-01 07:45:00,29.8,24.7,30.15,NW,322,0.0,1.0,81,0.00,,,0.00,Wunderground v.1.15,2013-04-01 12:45:00,
2013-04-01 07:50:00,30.1,25.0,30.15,North,352,0.0,1.0,81,0.00,,,0.00,Wunderground v.1.15,2013-04-01 12:50:00,
2013-04-01 07:52:00,30.2,25.1,30.15,North,353,1.0,1.0,81,0.00,,,0.00,Wunderground v.1.15,2013-04-01 12:52:00,
2013-04-01 07:55:00,30.4,25.0,30.15,NNW,332,1.0,4.0,80,0.00,,,0.00,Wunderground v.1.15,2013-04-01 12:55:00,
2013-04-01 07:58:00,30.5,25.1,30.15,NNW,342,1.0,4.0,80,0.00,,,0.00,Wunderground v.1.15,2013-04-01 12:58:00,
2013-04-01 07:59:00,30.5,25.1,30.15,North,349,1.0,4.0,80,0.00,,,0.00,Wunderground v.1.15,2013-04-01 12:59:00,
2013-04-01 08:00:00,30.6,24.9,30.15,NW,307,1.0,1.0,79,0.00,,,0.00,Wunderground v.1.15,2013-04-01 13:00:00,
2013-04-01 08:05:00,30.9,25.2,30.15,WNW,298,1.0,1.0,79,0.00,,,0.00,Wunderground v.1.15,2013-04-01 13:05:00,
2013-04-01 08:06:00,30.9,24.8,30.15,NNW,342,0.0,1.0,78,0.00,,,0.00,Wunderground v.1.15,2013-04-01 13:06:00,
2013-04-01 08:08:00,31.1,25.3,30.15,NNW,331,1.0,3.0,79,0.00,,,0.00,Wunderground v.1.15,2013-04-01 13:08:00,
2013-04-01 08:10:00,31.2,25.1,30.15,North,355,1.0,1.0,78,0.00,,,0.00,Wunderground v.1.15,2013-04-01 13:10:00,
2013-04-01 08:13:00,31.4,25.3,30.15,NNW,338,1.0,4.0,78,0.00,,,0.00,Wunderground v.1.15,2013-04-01 13:13:00,
2013-04-01 08:15:00,31.5,25.4,30.15,North,349,1.0,5.0,78,0.00,,,0.00,Wunderground v.1.15,2013-04-01 13:15:00,
2013-04-01 08:18:00,31.5,24.8,30.15,WNW,295,2.0,5.0,76,0.00,,,0.00,Wunderground v.1.15,2013-04-01 13:18:00,
2013-04-01 08:20:00,31.6,25.2,30.15,WNW,293,2.0,2.0,77,0.00,,,0.00,Wunderground v.1.15,2013-04-01 13:20:00,
2013-04-01 08:21:00,31.6,25.2,30.16,NNW,342,2.0,2.0,77,0.00,,,0.00,Wunderground v.1.15,2013-04-01 13:21:00,
2013-04-01 08:23:00,31.8,25.1,30.16,NW,318,3.0,5.0,76,0.00,,,0.00,Wunderground v.1.15,2013-04-01 13:23:00,
2013-04-01 08:25:00,31.8,24.8,30.16,NNW,342,3.0,5.0,75,0.00,,,0.00,Wunderground v.1.15,2013-04-01 13:25:00,
2013-04-01 08:26:00,31.8,24.8,30.16,North,356,3.0,5.0,75,0.00,,,0.00,Wunderground v.1.15,2013-04-01 13:26:00,
2013-04-01 08:28:00,32.0,25.0,30.16,NW,321,3.0,5.0,75,0.00,,,0.00,Wunderground v.1.15,2013-04-01 13:28:00,
2013-04-01 08:32:00,32.1,24.7,30.16,NNW,332,3.0,5.0,74,0.00,,,0.00,Wunderground v.1.15,2013-04-01 13:32:00,
2013-04-01 08:33:00,32.1,24.7,30.16,NNW,331,3.0,5.0,74,0.00,,,0.00,Wunderground v.1.15,2013-04-01 13:33:00,
2013-04-01 08:34:00,32.3,25.3,30.16,NNW,335,3.0,5.0,75,0.00,,,0.00,Wunderground v.1.15,2013-04-01 13:34:00,
2013-04-01 08:36:00,32.3,24.9,30.16,NNW,348,3.0,5.0,74,0.00,,,0.00,Wunderground v.1.15,2013-04-01 13:36:00,
2013-04-01 08:39:00,32.5,25.1,30.16,NNW,347,3.0,5.0,74,0.00,,,0.00,Wunderground v.1.15,2013-04-01 13:39:00,
2013-04-01 08:40:00,32.6,25.2,30.16,NNW,329,3.0,5.0,74,0.00,,,0.00,Wunderground v.1.15,2013-04-01 13:40:00,
2013-04-01 08:41:00,32.6,25.2,30.16,NW,324,3.0,5.0,74,0.00,,,0.00,Wunderground v.1.15,2013-04-01 13:41:00,
2013-04-01 08:42:00,32.7,25.0,30.16,North,359,2.0,5.0,73,0.00,,,0.00,Wunderground v.1.15,2013-04-01 13:42:00,
2013-04-01 08:44:00,32.8,25.1,30.16,NNW,340,2.0,6.0,73,0.00,,,0.00,Wunderground v.1.15,2013-04-01 13:44:00,
2013-04-01 08:45:00,32.8,25.1,30.16,NNW,342,2.0,6.0,73,0.00,,,0.00,Wunderground v.1.15,2013-04-01 13:45:00,
2013-04-01 08:49:00,32.9,24.9,30.17,NNW,340,3.0,6.0,72,0.00,,,0.00,Wunderground v.1.15,2013-04-01 13:49:00,
2013-04-01 08:51:00,33.0,24.6,30.17,NNW,347,3.0,6.0,71,0.00,,,0.00,Wunderground v.1.15,2013-04-01 13:51:00,
2013-04-01 08:54:00,33.1,25.1,30.17,NNW,335,3.0,6.0,72,0.00,,,0.00,Wunderground v.1.15,2013-04-01 13:54:00,
2013-04-01 08:56:00,33.2,24.8,30.17,NNW,335,3.0,6.0,71,0.00,,,0.00,Wunderground v.1.15,2013-04-01 13:56:00,
2013-04-01 08:58:00,33.4,25.0,30.17,NW,318,3.0,6.0,71,0.00,,,0.00,Wunderground v.1.15,2013-04-01 13:58:00,
2013-04-01 09:02:00,33.6,24.5,30.17,NNW,338,3.0,3.0,69,0.00,,,0.00,Wunderground v.1.15,2013-04-01 14:02:00,
2013-04-01 09:03:00,33.7,25.0,30.17,North,351,3.0,3.0,70,0.00,,,0.00,Wunderground v.1.15,2013-04-01 14:03:00,
2013-04-01 09:08:00,34.0,24.2,30.17,NNW,347,3.0,4.0,67,0.00,,,0.00,Wunderground v.1.15,2013-04-01 14:08:00,
2013-04-01 09:09:00,34.0,24.2,30.17,NNE,19,3.0,4.0,67,0.00,,,0.00,Wunderground v.1.15,2013-04-01 14:09:00,
2013-04-01 09:10:00,34.1,24.6,30.17,NNW,342,3.0,3.0,68,0.00,,,0.00,Wunderground v.1.15,2013-04-01 14:10:00,
2013-04-01 09:14:00,34.2,24.0,30.17,WNW,293,3.0,4.0,66,0.00,,,0.00,Wunderground v.1.15,2013-04-01 14:14:00,
2013-04-01 09:15:00,34.2,24.0,30.17,North,8,3.0,4.0,66,0.00,,,0.00,Wunderground v.1.15,2013-04-01 14:15:00,
2013-04-01 09:20:00,34.4,24.6,30.17,WNW,295,3.0,3.0,67,0.00,,,0.00,Wunderground v.1.15,2013-04-01 14:20:00,
2013-04-01 09:21:00,34.5,24.7,30.17,NE,37,3.0,3.0,67,0.00,,,0.00,Wunderground v.1.15,2013-04-01 14:21:00,
2013-04-01 09:22:00,34.5,24.3,30.17,NNW,342,3.0,3.0,66,0.00,,,0.00,Wunderground v.1.15,2013-04-01 14:22:00,
2013-04-01 09:25:00,34.7,23.8,30.18,NNW,328,2.0,7.0,64,0.00,,,0.00,Wunderground v.1.15,2013-04-01 14:25:00,
2013-04-01 09:27:00,34.5,23.2,30.18,NNW,335,3.0,7.0,63,0.00,,,0.00,Wunderground v.1.15,2013-04-01 14:27:00,
2013-04-01 09:28:00,34.6,24.0,30.18,North,1,3.0,7.0,65,0.00,,,0.00,Wunderground v.1.15,2013-04-01 14:28:00,
2013-04-01 09:30:00,34.5,23.2,30.18,WNW,293,3.0,5.0,63,0.00,,,0.00,Wunderground v.1.15,2013-04-01 14:30:00,
2013-04-01 09:32:00,34.5,23.6,30.18,NNW,336,3.0,5.0,64,0.00,,,0.00,Wunderground v.1.15,2013-04-01 14:32:00,
2013-04-01 09:33:00,34.6,24.4,30.18,WNW,300,3.0,5.0,66,0.00,,,0.00,Wunderground v.1.15,2013-04-01 14:33:00,
2013-04-01 09:35:00,34.9,24.3,30.18,NW,305,3.0,5.0,65,0.00,,,0.00,Wunderground v.1.15,2013-04-01 14:35:00,
2013-04-01 09:36:00,35.0,24.4,30.18,NNW,332,3.0,5.0,65,0.00,,,0.00,Wunderground v.1.15,2013-04-01 14:36:00,
2013-04-01 09:37:00,35.1,24.1,30.18,NNW,338,3.0,5.0,64,0.00,,,0.00,Wunderground v.1.15,2013-04-01 14:37:00,
2013-04-01 09:41:00,35.4,24.8,30.18,NW,316,3.0,3.0,65,0.00,,,0.00,Wunderground v.1.15,2013-04-01 14:41:00,
2013-04-01 09:42:00,35.5,24.9,30.18,West,276,2.0,3.0,65,0.00,,,0.00,Wunderground v.1.15,2013-04-01 14:42:00,
2013-04-01 09:44:00,35.6,24.2,30.18,NNW,342,2.0,3.0,63,0.00,,,0.00,Wunderground v.1.15,2013-04-01 14:44:00,
2013-04-01 09:46:00,35.7,24.3,30.18,WNW,297,2.0,3.0,63,0.00,,,0.00,Wunderground v.1.15,2013-04-01 14:46:00,
2013-04-01 09:47:00,35.8,24.4,30.18,NW,308,2.0,4.0,63,0.00,,,0.00,Wunderground v.1.15,2013-04-01 14:47:00,
2013-04-01 09:49:00,35.7,23.6,30.18,North,349,3.0,7.0,61,0.00,,,0.00,Wunderground v.1.15,2013-04-01 14:49:00,
2013-04-01 09:50:00,35.7,23.6,30.18,NW,316,3.0,3.0,61,0.00,,,0.00,Wunderground v.1.15,2013-04-01 14:50:00,
2013-04-01 09:51:00,35.7,23.6,30.18,NNW,342,3.0,8.0,61,0.00,,,0.00,Wunderground v.1.15,2013-04-01 14:51:00,
2013-04-01 09:55:00,35.7,23.6,30.18,NNW,330,3.0,8.0,61,0.00,,,0.00,Wunderground v.1.15,2013-04-01 14:55:00,
2013-04-01 09:56:00,35.7,23.6,30.19,NNW,338,3.0,8.0,61,0.00,,,0.00,Wunderground v.1.15,2013-04-01 14:56:00,
2013-04-01 09:57:00,35.9,24.5,30.19,NNW,345,3.0,8.0,63,0.00,,,0.00,Wunderground v.1.15,2013-04-01 14:57:00,
2013-04-01 10:01:00,35.9,23.7,30.19,NNW,340,3.0,3.0,61,0.00,,,0.00,Wunderground v.1.15,2013-04-01 15:01:00,
2013-04-01 10:02:00,35.9,24.1,30.19,NNW,335,3.0,3.0,62,0.00,,,0.00,Wunderground v.1.15,2013-04-01 15:02:00,
2013-04-01 10:03:00,36.1,24.3,30.18,NNW,335,3.0,3.0,62,0.00,,,0.00,Wunderground v.1.15,2013-04-01 15:03:00,
2013-04-01 10:04:00,36.1,23.5,30.19,NNW,342,3.0,4.0,60,0.00,,,0.00,Wunderground v.1.15,2013-04-01 15:04:00,
2013-04-01 10:08:00,36.2,22.4,30.19,North,357,3.0,5.0,57,0.00,,,0.00,Wunderground v.1.15,2013-04-01 15:08:00,
2013-04-01 10:09:00,36.2,23.2,30.19,NW,305,3.0,5.0,59,0.00,,,0.00,Wunderground v.1.15,2013-04-01 15:09:00,
2013-04-01 10:12:00,36.3,22.5,30.19,NNW,342,4.0,5.0,57,0.00,,,0.00,Wunderground v.1.15,2013-04-01 15:12:00,
2013-04-01 10:14:00,36.3,22.9,30.19,NNW,342,4.0,11.0,58,0.00,,,0.00,Wunderground v.1.15,2013-04-01 15:14:00,
2013-04-01 10:17:00,36.6,23.2,30.19,NNE,13,3.0,11.0,58,0.00,,,0.00,Wunderground v.1.15,2013-04-01 15:17:00,
2013-04-01 10:18:00,36.7,22.5,30.19,NW,316,4.0,11.0,56,0.00,,,0.00,Wunderground v.1.15,2013-04-01 15:18:00,
2013-04-01 10:21:00,37.0,24.0,30.19,NNW,340,3.0,4.0,59,0.00,,,0.00,Wunderground v.1.15,2013-04-01 15:21:00,
2013-04-01 10:24:00,37.0,22.7,30.19,WNW,302,3.0,4.0,56,0.00,,,0.00,Wunderground v.1.15,2013-04-01 15:24:00,
2013-04-01 10:25:00,37.0,22.7,30.19,NNW,338,3.0,5.0,56,0.00,,,0.00,Wunderground v.1.15,2013-04-01 15:25:00,
2013-04-01 10:26:00,36.8,22.6,30.19,WNW,293,3.0,5.0,56,0.00,,,0.00,Wunderground v.1.15,2013-04-01 15:26:00,
2013-04-01 10:30:00,36.7,22.0,30.19,NNW,338,3.0,6.0,55,0.00,,,0.00,Wunderground v.1.15,2013-04-01 15:30:00,
2013-04-01 10:31:00,36.7,22.0,30.19,WNW,300,4.0,6.0,55,0.00,,,0.00,Wunderground v.1.15,2013-04-01 15:31:00,
2013-04-01 10:32:00,36.8,22.1,30.19,WNW,301,4.0,6.0,55,0.00,,,0.00,Wunderground v.1.15,2013-04-01 15:32:00,
2013-04-01 10:35:00,37.2,22.5,30.19,WNW,290,4.0,6.0,55,0.00,,,0.00,Wunderground v.1.15,2013-04-01 15:35:00,
2013-04-01 10:38:00,37.5,23.2,30.19,WNW,295,3.0,6.0,56,0.00,,,0.00,Wunderground v.1.15,2013-04-01 15:38:00,
2013-04-01 10:40:00,37.0,21.4,30.19,NW,313,3.0,4.0,53,0.00,,,0.00,Wunderground v.1.15,2013-04-01 15:40:00,
2013-04-01 10:43:00,37.1,22.8,30.19,NW,307,3.0,5.0,56,0.00,,,0.00,Wunderground v.1.15,2013-04-01 15:43:00,
2013-04-01 10:44:00,37.1,22.4,30.19,North,1,3.0,5.0,55,0.00,,,0.00,Wunderground v.1.15,2013-04-01 15:44:00,
2013-04-01 10:46:00,37.4,23.1,30.20,NW,309,3.0,5.0,56,0.00,,,0.00,Wunderground v.1.15,2013-04-01 15:46:00,
2013-04-01 10:49:00,37.9,22.7,30.20,WNW,286,3.0,6.0,54,0.00,,,0.00,Wunderground v.1.15,2013-04-01 15:49:00,
2013-04-01 10:51:00,37.5,21.5,30.19,West,281,3.0,9.0,52,0.00,,,0.00,Wunderground v.1.15,2013-04-01 15:51:00,
2013-04-01 10:52:00,37.5,22.3,30.19,WNW,290,3.0,9.0,54,0.00,,,0.00,Wunderground v.1.15,2013-04-01 15:52:00,
2013-04-01 10:55:00,37.4,21.8,30.19,NNW,346,4.0,9.0,53,0.00,,,0.00,Wunderground v.1.15,2013-04-01 15:55:00,
2013-04-01 10:57:00,37.5,22.3,30.19,WNW,290,3.0,9.0,54,0.00,,,0.00,Wunderground v.1.15,2013-04-01 15:57:00,
2013-04-01 10:58:00,37.7,22.5,30.19,WNW,302,3.0,9.0,54,0.00,,,0.00,Wunderground v.1.15,2013-04-01 15:58:00,
2013-04-01 11:02:00,37.6,22.4,30.19,NNW,330,4.0,7.0,54,0.00,,,0.00,Wunderground v.1.15,2013-04-01 16:02:00,
2013-04-01 11:03:00,37.7,22.5,30.19,WNW,300,4.0,7.0,54,0.00,,,0.00,Wunderground v.1.15,2013-04-01 16:03:00,
2013-04-01 11:05:00,37.7,22.1,30.19,WNW,300,4.0,7.0,53,0.00,,,0.00,Wunderground v.1.15,2013-04-01 16:05:00,
2013-04-01 11:08:00,37.4,22.3,30.19,NNW,345,4.0,7.0,54,0.00,,,0.00,Wunderground v.1.15,2013-04-01 16:08:00,
2013-04-01 11:10:00,37.6,22.0,30.19,NNW,336,4.0,4.0,53,0.00,,,0.00,Wunderground v.1.15,2013-04-01 16:10:00,
2013-04-01 11:15:00,37.8,21.7,30.19,WNW,290,2.0,5.0,52,0.00,,,0.00,Wunderground v.1.15,2013-04-01 16:15:00,
2013-04-01 11:16:00,37.9,21.8,30.19,WNW,300,2.0,5.0,52,0.00,,,0.00,Wunderground v.1.15,2013-04-01 16:16:00,
2013-04-01 11:20:00,38.1,22.0,30.19,North,5,2.0,4.0,52,0.00,,,0.00,Wunderground v.1.15,2013-04-01 16:20:00,
2013-04-01 11:22:00,38.4,22.3,30.19,NW,320,3.0,5.0,52,0.00,,,0.00,Wunderground v.1.15,2013-04-01 16:22:00,
2013-04-01 11:25:00,38.7,22.1,30.19,West,262,3.0,8.0,51,0.00,,,0.00,Wunderground v.1.15,2013-04-01 16:25:00,
2013-04-01 11:27:00,38.9,22.8,30.19,West,279,3.0,8.0,52,0.00,,,0.00,Wunderground v.1.15,2013-04-01 16:27:00,
2013-04-01 11:28:00,39.0,22.8,30.19,West,277,3.0,8.0,52,0.00,,,0.00,Wunderground v.1.15,2013-04-01 16:28:00,
2013-04-01 11:30:00,39.0,22.8,30.19,North,352,4.0,4.0,52,0.00,,,0.00,Wunderground v.1.15,2013-04-01 16:30:00,
2013-04-01 11:34:00,39.1,22.5,30.20,North,353,4.0,4.0,51,0.00,,,0.00,Wunderground v.1.15,2013-04-01 16:34:00,
2013-04-01 11:35:00,39.2,22.6,30.19,West,271,4.0,4.0,51,0.00,,,0.00,Wunderground v.1.15,2013-04-01 16:35:00,
2013-04-01 11:36:00,39.1,21.5,30.19,NW,318,4.0,4.0,49,0.00,,,0.00,Wunderground v.1.15,2013-04-01 16:36:00,
2013-04-01 11:40:00,39.3,20.7,30.20,NW,314,3.0,3.0,47,0.00,,,0.00,Wunderground v.1.15,2013-04-01 16:40:00,
2013-04-01 11:41:00,39.3,22.7,30.20,West,281,3.0,5.0,51,0.00,,,0.00,Wunderground v.1.15,2013-04-01 16:41:00,
2013-04-01 11:42:00,39.3,22.2,30.20,NNE,26,3.0,7.0,50,0.00,,,0.00,Wunderground v.1.15,2013-04-01 16:42:00,
2013-04-01 11:44:00,39.4,21.3,30.20,NNW,331,3.0,7.0,48,0.00,,,0.00,Wunderground v.1.15,2013-04-01 16:44:00,
2013-04-01 11:45:00,39.4,21.8,30.20,WNW,292,3.0,7.0,49,0.00,,,0.00,Wunderground v.1.15,2013-04-01 16:45:00,
2013-04-01 11:48:00,39.4,21.3,30.20,NW,315,3.0,7.0,48,0.00,,,0.00,Wunderground v.1.15,2013-04-01 16:48:00,
2013-04-01 11:51:00,39.4,21.8,30.20,NW,306,3.0,3.0,49,0.00,,,0.00,Wunderground v.1.15,2013-04-01 16:51:00,
2013-04-01 11:54:00,39.5,20.9,30.20,NNW,331,3.0,3.0,47,0.00,,,0.00,Wunderground v.1.15,2013-04-01 16:54:00,
2013-04-01 11:55:00,39.6,21.5,30.20,WNW,297,3.0,4.0,48,0.00,,,0.00,Wunderground v.1.15,2013-04-01 16:55:00,
2013-04-01 11:56:00,39.7,22.1,30.20,NNW,328,3.0,4.0,49,0.00,,,0.00,Wunderground v.1.15,2013-04-01 16:56:00,
2013-04-01 11:57:00,39.6,22.0,30.20,NW,304,3.0,4.0,49,0.00,,,0.00,Wunderground v.1.15,2013-04-01 16:57:00,
2013-04-01 12:01:00,39.8,23.1,30.20,NNE,20,3.0,3.0,51,0.00,,,0.00,Wunderground v.1.15,2013-04-01 17:01:00,
2013-04-01 12:03:00,39.7,21.1,30.20,WNW,293,3.0,3.0,47,0.00,,,0.00,Wunderground v.1.15,2013-04-01 17:03:00,
2013-04-01 12:04:00,39.7,22.6,30.20,WNW,300,3.0,3.0,50,0.00,,,0.00,Wunderground v.1.15,2013-04-01 17:04:00,
2013-04-01 12:07:00,39.7,21.6,30.20,NW,305,3.0,4.0,48,0.00,,,0.00,Wunderground v.1.15,2013-04-01 17:07:00,
2013-04-01 12:10:00,39.8,22.2,30.20,West,261,3.0,3.0,49,0.00,,,0.00,Wunderground v.1.15,2013-04-01 17:10:00,
2013-04-01 12:15:00,40.6,22.9,30.20,WNW,294,3.0,4.0,49,0.00,,,0.00,Wunderground v.1.15,2013-04-01 17:15:00,
2013-04-01 12:16:00,40.6,22.4,30.20,WNW,295,3.0,4.0,48,0.00,,,0.00,Wunderground v.1.15,2013-04-01 17:16:00,
2013-04-01 12:17:00,40.7,22.5,30.20,NW,314,3.0,4.0,48,0.00,,,0.00,Wunderground v.1.15,2013-04-01 17:17:00,
2013-04-01 12:21:00,40.7,21.5,30.20,WNW,295,3.0,4.0,46,0.00,,,0.00,Wunderground v.1.15,2013-04-01 17:21:00,
2013-04-01 12:22:00,40.7,21.5,30.20,NNE,18,3.0,4.0,46,0.00,,,0.00,Wunderground v.1.15,2013-04-01 17:22:00,
2013-04-01 12:23:00,40.7,21.5,30.20,NW,307,3.0,4.0,46,0.00,,,0.00,Wunderground v.1.15,2013-04-01 17:23:00,
2013-04-01 12:25:00,40.5,21.3,30.20,West,276,3.0,4.0,46,0.00,,,0.00,Wunderground v.1.15,2013-04-01 17:25:00,
2013-04-01 12:29:00,40.4,22.2,30.20,NNW,342,3.0,6.0,48,0.00,,,0.00,Wunderground v.1.15,2013-04-01 17:29:00,
2013-04-01 12:32:00,40.5,21.3,30.19,NNE,20,3.0,6.0,46,0.00,,,0.00,Wunderground v.1.15,2013-04-01 17:32:00,
2013-04-01 12:34:00,40.7,22.0,30.20,WNW,298,4.0,6.0,47,0.00,,,0.00,Wunderground v.1.15,2013-04-01 17:34:00,
2013-04-01 12:35:00,40.8,21.6,30.19,WNW,288,4.0,6.0,46,0.00,,,0.00,Wunderground v.1.15,2013-04-01 17:35:00,
2013-04-01 12:36:00,40.9,22.2,30.20,WNW,300,3.0,6.0,47,0.00,,,0.00,Wunderground v.1.15,2013-04-01 17:36:00,
2013-04-01 12:38:00,40.9,20.1,30.19,WNW,295,4.0,6.0,43,0.00,,,0.00,Wunderground v.1.15,2013-04-01 17:38:00,
2013-04-01 12:40:00,40.8,20.5,30.19,NW,308,4.0,4.0,44,0.00,,,0.00,Wunderground v.1.15,2013-04-01 17:40:00,
2013-04-01 12:41:00,40.8,20.5,30.19,NW,322,4.0,4.0,44,0.00,,,0.00,Wunderground v.1.15,2013-04-01 17:41:00,
2013-04-01 12:43:00,41.0,21.8,30.19,NNW,347,4.0,6.0,46,0.00,,,0.00,Wunderground v.1.15,2013-04-01 17:43:00,
2013-04-01 12:48:00,40.8,22.1,30.19,NW,321,4.0,7.0,47,0.00,,,0.00,Wunderground v.1.15,2013-04-01 17:48:00,
2013-04-01 12:49:00,41.0,22.3,30.19,NNW,342,4.0,7.0,47,0.00,,,0.00,Wunderground v.1.15,2013-04-01 17:49:00,
2013-04-01 12:50:00,41.1,20.8,30.19,NW,325,4.0,4.0,44,0.00,,,0.00,Wunderground v.1.15,2013-04-01 17:50:00,
2013-04-01 12:54:00,41.0,21.3,30.19,North,350,4.0,8.0,45,0.00,,,0.00,Wunderground v.1.15,2013-04-01 17:54:00,
2013-04-01 12:55:00,40.9,21.7,30.19,NNW,338,5.0,8.0,46,0.00,,,0.00,Wunderground v.1.15,2013-04-01 17:55:00,
2013-04-01 12:57:00,41.1,21.3,30.19,NNW,342,4.0,8.0,45,0.00,,,0.00,Wunderground v.1.15,2013-04-01 17:57:00,
2013-04-01 13:00:00,41.3,22.1,30.19,NNW,338,4.0,6.0,46,0.00,,,0.00,Wunderground v.1.15,2013-04-01 18:00:00,
2013-04-01 13:01:00,41.3,22.1,30.19,WNW,293,4.0,6.0,46,0.00,,,0.00,Wunderground v.1.15,2013-04-01 18:01:00,
2013-04-01 13:03:00,41.5,21.7,30.19,NE,51,4.0,6.0,45,0.00,,,0.00,Wunderground v.1.15,2013-04-01 18:03:00,
2013-04-01 13:05:00,41.5,21.2,30.19,North,357,4.0,6.0,44,0.00,,,0.00,Wunderground v.1.15,2013-04-01 18:05:00,
2013-04-01 13:06:00,41.5,20.6,30.19,WNW,294,4.0,7.0,43,0.00,,,0.00,Wunderground v.1.15,2013-04-01 18:06:00,
2013-04-01 13:09:00,41.5,22.2,30.19,WNW,300,4.0,7.0,46,0.00,,,0.00,Wunderground v.1.15,2013-04-01 18:09:00,
2013-04-01 13:10:00,41.3,20.5,30.19,North,6,5.0,5.0,43,0.00,,,0.00,Wunderground v.1.15,2013-04-01 18:10:00,
2013-04-01 13:11:00,41.2,20.9,30.19,North,4,4.0,5.0,44,0.00,,,0.00,Wunderground v.1.15,2013-04-01 18:11:00,
2013-04-01 13:12:00,41.2,21.4,30.19,West,278,4.0,5.0,45,0.00,,,0.00,Wunderground v.1.15,2013-04-01 18:12:00,
2013-04-01 13:17:00,41.3,21.5,30.19,NNW,342,4.0,5.0,45,0.00,,,0.00,Wunderground v.1.15,2013-04-01 18:17:00,
2013-04-01 13:19:00,41.2,20.4,30.19,NNW,335,3.0,6.0,43,0.00,,,0.00,Wunderground v.1.15,2013-04-01 18:19:00,
2013-04-01 13:20:00,41.2,20.4,30.19,North,349,4.0,4.0,43,0.00,,,0.00,Wunderground v.1.15,2013-04-01 18:20:00,
2013-04-01 13:21:00,41.1,20.8,30.19,WNW,287,4.0,4.0,44,0.00,,,0.00,Wunderground v.1.15,2013-04-01 18:21:00,
2013-04-01 13:23:00,40.9,21.2,30.19,WNW,287,5.0,7.0,45,0.00,,,0.00,Wunderground v.1.15,2013-04-01 18:23:00,
2013-04-01 13:24:00,40.9,21.2,30.19,WNW,292,5.0,7.0,45,0.00,,,0.00,Wunderground v.1.15,2013-04-01 18:24:00,
2013-04-01 13:26:00,40.8,22.1,30.19,WNW,298,5.0,7.0,47,0.00,,,0.00,Wunderground v.1.15,2013-04-01 18:26:00,
2013-04-01 13:28:00,40.9,20.6,30.19,WNW,295,5.0,7.0,44,0.00,,,0.00,Wunderground v.1.15,2013-04-01 18:28:00,
2013-04-01 13:31:00,41.2,23.0,30.19,NNW,339,4.0,5.0,48,0.00,,,0.00,Wunderground v.1.15,2013-04-01 18:31:00,
2013-04-01 13:33:00,41.3,21.5,30.19,North,9,4.0,5.0,45,0.00,,,0.00,Wunderground v.1.15,2013-04-01 18:33:00,
2013-04-01 13:34:00,41.4,21.6,30.19,NNW,335,4.0,6.0,45,0.00,,,0.00,Wunderground v.1.15,2013-04-01 18:34:00,
2013-04-01 13:38:00,41.8,20.9,30.19,NW,316,4.0,11.0,43,0.00,,,0.00,Wunderground v.1.15,2013-04-01 18:38:00,
2013-04-01 13:39:00,41.8,20.9,30.19,WNW,298,4.0,11.0,43,0.00,,,0.00,Wunderground v.1.15,2013-04-01 18:39:00,
2013-04-01 13:40:00,41.8,20.9,30.20,WNW,288,4.0,4.0,43,0.00,,,0.00,Wunderground v.1.15,2013-04-01 18:40:00,
2013-04-01 13:45:00,42.0,22.2,30.19,NNW,328,3.0,7.0,45,0.00,,,0.00,Wunderground v.1.15,2013-04-01 18:45:00,
2013-04-01 13:46:00,42.2,21.8,30.19,NNE,20,3.0,7.0,44,0.00,,,0.00,Wunderground v.1.15,2013-04-01 18:46:00,
2013-04-01 13:48:00,42.4,21.5,30.19,NNW,335,3.0,7.0,43,0.00,,,0.00,Wunderground v.1.15,2013-04-01 18:48:00,
2013-04-01 13:52:00,42.5,21.5,30.19,NE,46,4.0,6.0,43,0.00,,,0.00,Wunderground v.1.15,2013-04-01 18:52:00,
2013-04-01 13:53:00,42.5,21.0,30.19,NNE,26,4.0,6.0,42,0.00,,,0.00,Wunderground v.1.15,2013-04-01 18:53:00,
2013-04-01 13:56:00,42.5,20.4,30.19,North,353,4.0,7.0,41,0.00,,,0.00,Wunderground v.1.15,2013-04-01 18:56:00,
2013-04-01 13:57:00,42.4,21.5,30.19,NE,42,4.0,7.0,43,0.00,,,0.00,Wunderground v.1.15,2013-04-01 18:57:00,
2013-04-01 13:59:00,42.4,21.5,30.19,NW,304,4.0,7.0,43,0.00,,,0.00,Wunderground v.1.15,2013-04-01 18:59:00,
2013-04-01 14:03:00,42.4,21.5,30.19,NW,305,3.0,5.0,43,0.00,,,0.00,Wunderground v.1.15,2013-04-01 19:03:00,
2013-04-01 14:04:00,42.3,21.4,30.19,North,355,4.0,5.0,43,0.00,,,0.00,Wunderground v.1.15,2013-04-01 19:04:00,
2013-04-01 14:07:00,42.1,20.6,30.19,NW,314,3.0,5.0,42,0.00,,,0.00,Wunderground v.1.15,2013-04-01 19:07:00,
2013-04-01 14:09:00,42.2,21.3,30.19,NNE,29,3.0,5.0,43,0.00,,,0.00,Wunderground v.1.15,2013-04-01 19:09:00,
2013-04-01 14:11:00,42.3,20.2,30.19,North,349,3.0,7.0,41,0.00,,,0.00,Wunderground v.1.15,2013-04-01 19:11:00,
2013-04-01 14:13:00,42.4,21.5,30.19,NNW,345,4.0,7.0,43,0.00,,,0.00,Wunderground v.1.15,2013-04-01 19:13:00,
2013-04-01 14:14:00,42.5,22.6,30.19,NNW,337,4.0,7.0,45,0.00,,,0.00,Wunderground v.1.15,2013-04-01 19:14:00,
2013-04-01 14:15:00,42.7,22.8,30.19,NW,318,4.0,7.0,45,0.00,,,0.00,Wunderground v.1.15,2013-04-01 19:15:00,
2013-04-01 14:18:00,42.3,20.8,30.19,NW,304,4.0,7.0,42,0.00,,,0.00,Wunderground v.1.15,2013-04-01 19:18:00,
2013-04-01 14:20:00,42.1,22.3,30.19,NW,318,4.0,5.0,45,0.00,,,0.00,Wunderground v.1.15,2013-04-01 19:20:00,
2013-04-01 14:21:00,42.2,22.4,30.19,NNW,331,4.0,5.0,45,0.00,,,0.00,Wunderground v.1.15,2013-04-01 19:21:00,
2013-04-01 14:23:00,42.3,22.4,30.19,North,8,4.0,5.0,45,0.00,,,0.00,Wunderground v.1.15,2013-04-01 19:23:00,
2013-04-01 14:26:00,42.5,22.6,30.19,NW,314,3.0,8.0,45,0.00,,,0.00,Wunderground v.1.15,2013-04-01 19:26:00,
2013-04-01 14:27:00,42.5,21.5,30.19,WNW,300,3.0,8.0,43,0.00,,,0.00,Wunderground v.1.15,2013-04-01 19:27:00,
2013-04-01 14:28:00,42.5,21.5,30.19,WNW,298,3.0,8.0,43,0.00,,,0.00,Wunderground v.1.15,2013-04-01 19:28:00,
2013-04-01 14:31:00,42.9,21.9,30.19,NW,305,3.0,3.0,43,0.00,,,0.00,Wunderground v.1.15,2013-04-01 19:31:00,
2013-04-01 14:33:00,42.9,21.4,30.18,NW,309,4.0,6.0,42,0.00,,,0.00,Wunderground v.1.15,2013-04-01 19:33:00,
2013-04-01 14:35:00,42.8,21.3,30.18,NW,304,4.0,9.0,42,0.00,,,0.00,Wunderground v.1.15,2013-04-01 19:35:00,
2013-04-01 14:36:00,42.8,21.3,30.18,NW,320,4.0,9.0,42,0.00,,,0.00,Wunderground v.1.15,2013-04-01 19:36:00,
2013-04-01 14:38:00,42.7,21.2,30.19,WNW,295,4.0,9.0,42,0.00,,,0.00,Wunderground v.1.15,2013-04-01 19:38:00,
2013-04-01 14:40:00,42.7,21.2,30.18,NNW,333,4.0,7.0,42,0.00,,,0.00,Wunderground v.1.15,2013-04-01 19:40:00,
2013-04-01 14:41:00,42.5,21.0,30.18,NW,309,4.0,7.0,42,0.00,,,0.00,Wunderground v.1.15,2013-04-01 19:41:00,
2013-04-01 14:45:00,42.3,20.2,30.18,NNW,329,4.0,7.0,41,0.00,,,0.00,Wunderground v.1.15,2013-04-01 19:45:00,
2013-04-01 14:46:00,42.2,20.7,30.18,West,276,4.0,7.0,42,0.00,,,0.00,Wunderground v.1.15,2013-04-01 19:46:00,
2013-04-01 14:47:00,42.1,20.6,30.18,West,259,4.0,7.0,42,0.00,,,0.00,Wunderground v.1.15,2013-04-01 19:47:00,
2013-04-01 14:50:00,41.9,20.4,30.18,NNW,342,4.0,5.0,42,0.00,,,0.00,Wunderground v.1.15,2013-04-01 19:50:00,
2013-04-01 14:51:00,41.9,21.5,30.18,WNW,302,4.0,7.0,44,0.00,,,0.00,Wunderground v.1.15,2013-04-01 19:51:00,
2013-04-01 14:53:00,42.3,22.4,30.19,NW,314,4.0,7.0,45,0.00,,,0.00,Wunderground v.1.15,2013-04-01 19:53:00,
2013-04-01 14:56:00,42.4,20.3,30.19,WNW,296,4.0,7.0,41,0.00,,,0.00,Wunderground v.1.15,2013-04-01 19:56:00,
2013-04-01 14:59:00,42.1,20.1,30.19,WSW,249,4.0,8.0,41,0.00,,,0.00,Wunderground v.1.15,2013-04-01 19:59:00,
2013-04-01 15:00:00,42.0,20.5,30.19,WNW,294,4.0,4.0,42,0.00,,,0.00,Wunderground v.1.15,2013-04-01 20:00:00,
2013-04-01 15:04:00,42.2,20.2,30.19,NW,313,3.0,4.0,41,0.00,,,0.00,Wunderground v.1.15,2013-04-01 20:04:00,
2013-04-01 15:07:00,42.3,21.9,30.19,NW,323,4.0,6.0,44,0.00,,,0.00,Wunderground v.1.15,2013-04-01 20:07:00,
2013-04-01 15:09:00,42.6,21.6,30.19,NNE,33,4.0,8.0,43,0.00,,,0.00,Wunderground v.1.15,2013-04-01 20:09:00,
2013-04-01 15:12:00,42.6,21.1,30.19,NNW,338,4.0,6.0,42,0.00,,,0.00,Wunderground v.1.15,2013-04-01 20:12:00,
2013-04-01 15:14:00,42.5,21.0,30.19,NW,305,4.0,6.0,42,0.00,,,0.00,Wunderground v.1.15,2013-04-01 20:14:00,
2013-04-01 15:15:00,42.4,20.3,30.18,NW,316,5.0,6.0,41,0.00,,,0.00,Wunderground v.1.15,2013-04-01 20:15:00,
2013-04-01 15:18:00,42.5,21.5,30.19,NW,309,4.0,6.0,43,0.00,,,0.00,Wunderground v.1.15,2013-04-01 20:18:00,
2013-04-01 15:19:00,42.7,22.3,30.19,NW,311,4.0,6.0,44,0.00,,,0.00,Wunderground v.1.15,2013-04-01 20:19:00,
2013-04-01 15:22:00,42.8,22.4,30.19,NNW,335,4.0,6.0,44,0.00,,,0.00,Wunderground v.1.15,2013-04-01 20:22:00,
2013-04-01 15:23:00,42.8,21.8,30.19,WNW,283,4.0,6.0,43,0.00,,,0.00,Wunderground v.1.15,2013-04-01 20:23:00,
2013-04-01 15:24:00,42.7,21.7,30.18,WNW,302,3.0,6.0,43,0.00,,,0.00,Wunderground v.1.15,2013-04-01 20:24:00,
2013-04-01 15:25:00,42.8,22.9,30.18,NNW,327,3.0,6.0,45,0.00,,,0.00,Wunderground v.1.15,2013-04-01 20:25:00,
2013-04-01 15:27:00,43.0,22.0,30.19,WNW,292,3.0,6.0,43,0.00,,,0.00,Wunderground v.1.15,2013-04-01 20:27:00,
2013-04-01 15:30:00,43.0,22.0,30.19,NE,47,3.0,5.0,43,0.00,,,0.00,Wunderground v.1.15,2013-04-01 20:30:00,
2013-04-01 15:32:00,42.9,21.4,30.18,WNW,297,3.0,5.0,42,0.00,,,0.00,Wunderground v.1.15,2013-04-01 20:32:00,
2013-04-01 15:35:00,42.7,20.6,30.19,NW,315,3.0,8.0,41,0.00,,,0.00,Wunderground v.1.15,2013-04-01 20:35:00,
2013-04-01 15:36:00,42.6,19.9,30.19,WNW,297,3.0,8.0,40,0.00,,,0.00,Wunderground v.1.15,2013-04-01 20:36:00,
2013-04-01 15:37:00,42.5,20.4,30.19,NNW,335,2.0,8.0,41,0.00,,,0.00,Wunderground v.1.15,2013-04-01 20:37:00,
2013-04-01 15:40:00,42.7,22.3,30.18,NW,309,3.0,3.0,44,0.00,,,0.00,Wunderground v.1.15,2013-04-01 20:40:00,
2013-04-01 15:41:00,42.6,20.5,30.18,NNW,337,3.0,3.0,41,0.00,,,0.00,Wunderground v.1.15,2013-04-01 20:41:00,
2013-04-01 15:43:00,42.5,21.0,30.18,NW,318,3.0,3.0,42,0.00,,,0.00,Wunderground v.1.15,2013-04-01 20:43:00,
2013-04-01 15:44:00,42.6,19.9,30.18,NNW,340,3.0,3.0,40,0.00,,,0.00,Wunderground v.1.15,2013-04-01 20:44:00,
2013-04-01 15:45:00,42.6,21.1,30.18,WNW,300,3.0,3.0,42,0.00,,,0.00,Wunderground v.1.15,2013-04-01 20:45:00,
2013-04-01 15:49:00,42.5,21.5,30.18,NNW,335,2.0,4.0,43,0.00,,,0.00,Wunderground v.1.15,2013-04-01 20:49:00,
2013-04-01 15:51:00,42.7,20.0,30.18,NE,51,2.0,3.0,40,0.00,,,0.00,Wunderground v.1.15,2013-04-01 20:51:00,
2013-04-01 15:53:00,42.8,20.7,30.18,North,353,2.0,3.0,41,0.00,,,0.00,Wunderground v.1.15,2013-04-01 20:53:00,
2013-04-01 15:54:00,42.9,21.4,30.18,NNW,346,2.0,3.0,42,0.00,,,0.00,Wunderground v.1.15,2013-04-01 20:54:00,
2013-04-01 15:55:00,43.0,20.3,30.19,NNW,342,2.0,3.0,40,0.00,,,0.00,Wunderground v.1.15,2013-04-01 20:55:00,
2013-04-01 15:58:00,42.6,20.5,30.18,WNW,301,3.0,6.0,41,0.00,,,0.00,Wunderground v.1.15,2013-04-01 20:58:00,
2013-04-01 16:00:00,42.5,21.0,30.18,NW,309,3.0,3.0,42,0.00,,,0.00,Wunderground v.1.15,2013-04-01 21:00:00,
2013-04-01 16:01:00,42.6,21.6,30.18,WNW,295,3.0,4.0,43,0.00,,,0.00,Wunderground v.1.15,2013-04-01 21:01:00,
2013-04-01 16:02:00,42.7,21.2,30.18,NNW,337,3.0,4.0,42,0.00,,,0.00,Wunderground v.1.15,2013-04-01 21:02:00,
2013-04-01 16:06:00,42.7,21.2,30.18,NNW,346,3.0,4.0,42,0.00,,,0.00,Wunderground v.1.15,2013-04-01 21:06:00,
2013-04-01 16:08:00,42.7,21.7,30.18,WNW,295,3.0,4.0,43,0.00,,,0.00,Wunderground v.1.15,2013-04-01 21:08:00,
2013-04-01 16:09:00,42.6,19.9,30.18,West,280,3.0,4.0,40,0.00,,,0.00,Wunderground v.1.15,2013-04-01 21:09:00,
2013-04-01 16:11:00,42.2,20.7,30.18,WNW,302,4.0,4.0,42,0.00,,,0.00,Wunderground v.1.15,2013-04-01 21:11:00,
2013-04-01 16:13:00,42.2,21.8,30.18,North,351,3.0,4.0,44,0.00,,,0.00,Wunderground v.1.15,2013-04-01 21:13:00,
2013-04-01 16:14:00,42.3,21.9,30.18,NNW,340,3.0,6.0,44,0.00,,,0.00,Wunderground v.1.15,2013-04-01 21:14:00,
2013-04-01 16:16:00,42.6,21.6,30.18,NNW,331,3.0,6.0,43,0.00,,,0.00,Wunderground v.1.15,2013-04-01 21:16:00,
2013-04-01 16:18:00,42.9,22.5,30.18,NNW,347,2.0,8.0,44,0.00,,,0.00,Wunderground v.1.15,2013-04-01 21:18:00,
2013-04-01 16:21:00,43.0,21.4,30.18,North,352,2.0,5.0,42,0.00,,,0.00,Wunderground v.1.15,2013-04-01 21:21:00,
2013-04-01 16:22:00,42.9,20.2,30.18,NNW,330,3.0,8.0,40,0.00,,,0.00,Wunderground v.1.15,2013-04-01 21:22:00,
2013-04-01 16:23:00,42.9,19.6,30.18,NNW,338,3.0,8.0,39,0.00,,,0.00,Wunderground v.1.15,2013-04-01 21:23:00,
2013-04-01 16:27:00,42.8,19.5,30.18,NW,313,4.0,8.0,39,0.00,,,0.00,Wunderground v.1.15,2013-04-01 21:27:00,
2013-04-01 16:28:00,42.7,20.0,30.18,WNW,302,4.0,8.0,40,0.00,,,0.00,Wunderground v.1.15,2013-04-01 21:28:00,
2013-04-01 16:31:00,42.6,21.1,30.19,NW,318,3.0,4.0,42,0.00,,,0.00,Wunderground v.1.15,2013-04-01 21:31:00,
2013-04-01 16:33:00,42.6,22.2,30.18,North,353,3.0,5.0,44,0.00,,,0.00,Wunderground v.1.15,2013-04-01 21:33:00,
2013-04-01 16:35:00,42.5,20.4,30.18,WSW,255,3.0,5.0,41,0.00,,,0.00,Wunderground v.1.15,2013-04-01 21:35:00,
2013-04-01 16:36:00,42.6,21.6,30.18,NNE,12,3.0,5.0,43,0.00,,,0.00,Wunderground v.1.15,2013-04-01 21:36:00,
2013-04-01 16:40:00,42.6,21.1,30.18,WNW,287,3.0,3.0,42,0.00,,,0.00,Wunderground v.1.15,2013-04-01 21:40:00,
2013-04-01 16:41:00,42.6,21.1,30.18,NNW,333,3.0,3.0,42,0.00,,,0.00,Wunderground v.1.15,2013-04-01 21:41:00,
2013-04-01 16:42:00,42.5,20.4,30.19,North,4,3.0,6.0,41,0.00,,,0.00,Wunderground v.1.15,2013-04-01 21:42:00,
2013-04-01 16:44:00,42.3,20.2,30.19,NW,324,3.0,6.0,41,0.00,,,0.00,Wunderground v.1.15,2013-04-01 21:44:00,
2013-04-01 16:46:00,42.3,20.2,30.19,NNW,337,4.0,6.0,41,0.00,,,0.00,Wunderground v.1.15,2013-04-01 21:46:00,
2013-04-01 16:47:00,42.2,19.6,30.18,NNW,341,4.0,6.0,40,0.00,,,0.00,Wunderground v.1.15,2013-04-01 21:47:00,
2013-04-01 16:49:00,42.3,20.8,30.19,NNW,337,4.0,6.0,42,0.00,,,0.00,Wunderground v.1.15,2013-04-01 21:49:00,
2013-04-01 16:51:00,42.4,20.9,30.19,NW,325,4.0,4.0,42,0.00,,,0.00,Wunderground v.1.15,2013-04-01 21:51:00,
2013-04-01 16:52:00,42.4,20.3,30.19,WNW,297,3.0,4.0,41,0.00,,,0.00,Wunderground v.1.15,2013-04-01 21:52:00,
2013-04-01 16:53:00,42.5,21.5,30.19,NNW,333,3.0,4.0,43,0.00,,,0.00,Wunderground v.1.15,2013-04-01 21:53:00,
2013-04-01 16:55:00,42.5,20.4,30.19,NNW,338,3.0,4.0,41,0.00,,,0.00,Wunderground v.1.15,2013-04-01 21:55:00,
2013-04-01 16:57:00,42.3,20.8,30.19,North,349,3.0,6.0,42,0.00,,,0.00,Wunderground v.1.15,2013-04-01 21:57:00,
2013-04-01 16:58:00,42.2,20.2,30.18,North,351,3.0,6.0,41,0.00,,,0.00,Wunderground v.1.15,2013-04-01 21:58:00,
2013-04-01 17:01:00,42.0,20.0,30.19,North,6,4.0,7.0,41,0.00,,,0.00,Wunderground v.1.15,2013-04-01 22:01:00,
2013-04-01 17:04:00,41.8,18.6,30.19,NW,308,4.0,7.0,39,0.00,,,0.00,Wunderground v.1.15,2013-04-01 22:04:00,
2013-04-01 17:06:00,41.8,19.2,30.19,North,1,4.0,7.0,40,0.00,,,0.00,Wunderground v.1.15,2013-04-01 22:06:00,
2013-04-01 17:07:00,41.8,19.2,30.19,West,278,4.0,7.0,40,0.00,,,0.00,Wunderground v.1.15,2013-04-01 22:07:00,
2013-04-01 17:09:00,41.9,19.3,30.19,WNW,291,4.0,7.0,40,0.00,,,0.00,Wunderground v.1.15,2013-04-01 22:09:00,
2013-04-01 17:12:00,42.0,20.0,30.19,West,270,3.0,3.0,41,0.00,,,0.00,Wunderground v.1.15,2013-04-01 22:12:00,
2013-04-01 17:13:00,42.0,20.5,30.19,WNW,285,3.0,5.0,42,0.00,,,0.00,Wunderground v.1.15,2013-04-01 22:13:00,
2013-04-01 17:15:00,42.0,20.0,30.19,West,281,2.0,6.0,41,0.00,,,0.00,Wunderground v.1.15,2013-04-01 22:15:00,
2013-04-01 17:18:00,41.9,20.4,30.19,NW,320,3.0,6.0,42,0.00,,,0.00,Wunderground v.1.15,2013-04-01 22:18:00,
2013-04-01 17:19:00,41.9,20.4,30.19,WNW,286,3.0,6.0,42,0.00,,,0.00,Wunderground v.1.15,2013-04-01 22:19:00,
2013-04-01 17:20:00,41.9,19.9,30.19,NW,312,3.0,3.0,41,0.00,,,0.00,Wunderground v.1.15,2013-04-01 22:20:00,
2013-04-01 17:21:00,41.9,20.4,30.19,NNE,17,3.0,3.0,42,0.00,,,0.00,Wunderground v.1.15,2013-04-01 22:21:00,
2013-04-01 17:27:00,41.8,20.4,30.19,West,278,3.0,9.0,42,0.00,,,0.00,Wunderground v.1.15,2013-04-01 22:27:00,
2013-04-01 17:28:00,41.6,20.7,30.19,NW,304,3.0,9.0,43,0.00,,,0.00,Wunderground v.1.15,2013-04-01 22:28:00,
2013-04-01 17:30:00,41.7,21.4,30.20,NNW,334,3.0,3.0,44,0.00,,,0.00,Wunderground v.1.15,2013-04-01 22:30:00,
2013-04-01 17:32:00,41.6,20.7,30.19,NW,304,3.0,3.0,43,0.00,,,0.00,Wunderground v.1.15,2013-04-01 22:32:00,
2013-04-01 17:33:00,41.6,20.7,30.20,WNW,297,2.0,3.0,43,0.00,,,0.00,Wunderground v.1.15,2013-04-01 22:33:00,
2013-04-01 17:35:00,41.7,20.3,30.20,WNW,290,2.0,3.0,42,0.00,,,0.00,Wunderground v.1.15,2013-04-01 22:35:00,
2013-04-01 17:38:00,41.9,21.0,30.20,NW,315,1.0,3.0,43,0.00,,,0.00,Wunderground v.1.15,2013-04-01 22:38:00,
2013-04-01 17:40:00,41.8,19.2,30.19,WNW,285,1.0,2.0,40,0.00,,,0.00,Wunderground v.1.15,2013-04-01 22:40:00,
2013-04-01 17:41:00,41.7,20.3,30.19,NNW,333,1.0,2.0,42,0.00,,,0.00,Wunderground v.1.15,2013-04-01 22:41:00,
2013-04-01 17:43:00,41.7,20.8,30.20,WNW,294,2.0,3.0,43,0.00,,,0.00,Wunderground v.1.15,2013-04-01 22:43:00,
2013-04-01 17:44:00,41.6,20.7,30.20,NW,315,2.0,3.0,43,0.00,,,0.00,Wunderground v.1.15,2013-04-01 22:44:00,
2013-04-01 17:47:00,41.6,20.7,30.20,WNW,302,2.0,3.0,43,0.00,,,0.00,Wunderground v.1.15,2013-04-01 22:47:00,
2013-04-01 17:48:00,41.5,20.1,30.20,WNW,293,2.0,3.0,42,0.00,,,0.00,Wunderground v.1.15,2013-04-01 22:48:00,
2013-04-01 17:50:00,41.4,20.5,30.20,West,274,2.0,2.0,43,0.00,,,0.00,Wunderground v.1.15,2013-04-01 22:50:00,
2013-04-01 17:53:00,41.5,19.5,30.20,NNW,329,2.0,2.0,41,0.00,,,0.00,Wunderground v.1.15,2013-04-01 22:53:00,
2013-04-01 17:54:00,41.5,20.6,30.20,NNW,342,2.0,2.0,43,0.00,,,0.00,Wunderground v.1.15,2013-04-01 22:54:00,
2013-04-01 17:55:00,41.5,21.2,30.20,NNW,338,2.0,4.0,44,0.00,,,0.00,Wunderground v.1.15,2013-04-01 22:55:00,
2013-04-01 17:59:00,41.1,19.7,30.20,WNW,297,2.0,5.0,42,0.00,,,0.00,Wunderground v.1.15,2013-04-01 22:59:00,
2013-04-01 18:00:00,41.0,19.6,30.19,WNW,299,2.0,2.0,42,0.00,,,0.00,Wunderground v.1.15,2013-04-01 23:00:00,
2013-04-01 18:02:00,41.0,20.2,30.19,NW,304,2.0,3.0,43,0.00,,,0.00,Wunderground v.1.15,2013-04-01 23:02:00,
2013-04-01 18:03:00,40.9,20.1,30.20,NW,309,2.0,3.0,43,0.00,,,0.00,Wunderground v.1.15,2013-04-01 23:03:00,
2013-04-01 18:06:00,40.9,19.0,30.20,West,276,2.0,6.0,41,0.00,,,0.00,Wunderground v.1.15,2013-04-01 23:06:00,
2013-04-01 18:08:00,40.8,18.9,30.20,NNW,337,2.0,6.0,41,0.00,,,0.00,Wunderground v.1.15,2013-04-01 23:08:00,
2013-04-01 18:11:00,40.6,19.8,30.20,WNW,302,2.0,4.0,43,0.00,,,0.00,Wunderground v.1.15,2013-04-01 23:11:00,
2013-04-01 18:12:00,40.6,19.8,30.20,WNW,302,2.0,4.0,43,0.00,,,0.00,Wunderground v.1.15,2013-04-01 23:12:00,
2013-04-01 18:13:00,40.6,19.3,30.20,NW,309,2.0,4.0,42,0.00,,,0.00,Wunderground v.1.15,2013-04-01 23:13:00,
2013-04-01 18:15:00,40.4,19.6,30.20,NW,308,2.0,4.0,43,0.00,,,0.00,Wunderground v.1.15,2013-04-01 23:15:00,
2013-04-01 18:17:00,40.3,20.1,30.20,NNW,331,3.0,7.0,44,0.00,,,0.00,Wunderground v.1.15,2013-04-01 23:17:00,
2013-04-01 18:19:00,40.2,20.5,30.20,NNW,335,3.0,7.0,45,0.00,,,0.00,Wunderground v.1.15,2013-04-01 23:19:00,
2013-04-01 18:20:00,40.1,19.4,30.20,NNW,342,3.0,3.0,43,0.00,,,0.00,Wunderground v.1.15,2013-04-01 23:20:00,
2013-04-01 18:24:00,40.0,20.3,30.20,WNW,300,2.0,3.0,45,0.00,,,0.00,Wunderground v.1.15,2013-04-01 23:24:00,
2013-04-01 18:25:00,39.9,19.7,30.20,WNW,286,3.0,3.0,44,0.00,,,0.00,Wunderground v.1.15,2013-04-01 23:25:00,
2013-04-01 18:26:00,39.9,20.3,30.20,NW,322,3.0,3.0,45,0.00,,,0.00,Wunderground v.1.15,2013-04-01 23:26:00,
2013-04-01 18:29:00,39.7,20.1,30.20,NNW,327,2.0,3.0,45,0.00,,,0.00,Wunderground v.1.15,2013-04-01 23:29:00,
2013-04-01 18:30:00,39.7,20.1,30.20,WNW,300,2.0,2.0,45,0.00,,,0.00,Wunderground v.1.15,2013-04-01 23:30:00,
2013-04-01 18:35:00,39.6,20.0,30.20,NW,318,2.0,2.0,45,0.00,,,0.00,Wunderground v.1.15,2013-04-01 23:35:00,
2013-04-01 18:36:00,39.5,19.9,30.20,NNW,335,2.0,2.0,45,0.00,,,0.00,Wunderground v.1.15,2013-04-01 23:36:00,
2013-04-01 18:37:00,39.5,19.9,30.20,NNW,338,2.0,3.0,45,0.00,,,0.00,Wunderground v.1.15,2013-04-01 23:37:00,
2013-04-01 18:40:00,39.3,19.7,30.20,NNW,345,2.0,3.0,45,0.00,,,0.00,Wunderground v.1.15,2013-04-01 23:40:00,
2013-04-01 18:42:00,39.1,19.5,30.20,NNW,347,2.0,3.0,45,0.00,,,0.00,Wunderground v.1.15,2013-04-01 23:42:00,
2013-04-01 18:44:00,39.0,19.9,30.20,NNW,345,2.0,3.0,46,0.00,,,0.00,Wunderground v.1.15,2013-04-01 23:44:00,
2013-04-01 18:46:00,38.9,19.9,30.20,NW,304,3.0,5.0,46,0.00,,,0.00,Wunderground v.1.15,2013-04-01 23:46:00,
2013-04-01 18:49:00,38.9,20.4,30.20,NNW,338,2.0,5.0,47,0.00,,,0.00,Wunderground v.1.15,2013-04-01 23:49:00,
2013-04-01 18:52:00,38.7,20.2,30.20,NNW,335,2.0,3.0,47,0.00,,,0.00,Wunderground v.1.15,2013-04-01 23:52:00,
2013-04-01 18:53:00,38.5,20.0,30.20,NW,322,2.0,3.0,47,0.00,,,0.00,Wunderground v.1.15,2013-04-01 23:53:00,
2013-04-01 18:55:00,38.3,19.8,30.20,NW,304,1.0,3.0,47,0.00,,,0.00,Wunderground v.1.15,2013-04-01 23:55:00,
2013-04-01 18:58:00,37.9,20.4,30.20,NW,311,1.0,3.0,49,0.00,,,0.00,Wunderground v.1.15,2013-04-01 23:58:00,
2013-04-01 19:02:00,37.5,20.1,30.20,North,357,0.0,1.0,49,0.00,,,0.00,Wunderground v.1.15,2013-04-02 00:02:00,
2013-04-01 19:03:00,37.4,19.5,30.20,NNW,339,0.0,1.0,48,0.00,,,0.00,Wunderground v.1.15,2013-04-02 00:03:00,
2013-04-01 19:04:00,37.3,19.9,30.21,NNE,18,0.0,1.0,49,0.00,,,0.00,Wunderground v.1.15,2013-04-02 00:04:00,
2013-04-01 19:08:00,36.9,20.0,30.21,NNW,335,0.0,1.0,50,0.00,,,0.00,Wunderground v.1.15,2013-04-02 00:08:00,
2013-04-01 19:10:00,36.9,20.0,30.21,NNW,335,0.0,0.0,50,0.00,,,0.00,Wunderground v.1.15,2013-04-02 00:10:00,
2013-04-01 19:11:00,36.8,19.9,30.21,North,349,0.0,0.0,50,0.00,,,0.00,Wunderground v.1.15,2013-04-02 00:11:00,
2013-04-01 19:17:00,36.3,20.3,30.21,NNW,338,0.0,1.0,52,0.00,,,0.00,Wunderground v.1.15,2013-04-02 00:17:00,
2013-04-01 19:18:00,36.3,20.3,30.21,WNW,284,0.0,1.0,52,0.00,,,0.00,Wunderground v.1.15,2013-04-02 00:18:00,
2013-04-01 19:22:00,35.8,20.8,30.21,NW,326,0.0,0.0,54,0.00,,,0.00,Wunderground v.1.15,2013-04-02 00:22:00,
2013-04-01 19:26:00,35.5,20.5,30.21,NNW,333,0.0,0.0,54,0.00,,,0.00,Wunderground v.1.15,2013-04-02 00:26:00,
2013-04-01 19:27:00,35.3,20.3,30.21,WNW,295,0.0,0.0,54,0.00,,,0.00,Wunderground v.1.15,2013-04-02 00:27:00,
2013-04-01 19:29:00,35.2,20.6,30.21,NNW,338,0.0,0.0,55,0.00,,,0.00,Wunderground v.1.15,2013-04-02 00:29:00,
2013-04-01 19:32:00,35.0,20.4,30.21,NNW,338,0.0,0.0,55,0.00,,,0.00,Wunderground v.1.15,2013-04-02 00:32:00,
2013-04-01 19:34:00,34.9,20.4,30.21,NW,304,0.0,0.0,55,0.00,,,0.00,Wunderground v.1.15,2013-04-02 00:34:00,
2013-04-01 19:36:00,34.8,20.3,30.21,NW,322,0.0,0.0,55,0.00,,,0.00,Wunderground v.1.15,2013-04-02 00:36:00,
2013-04-01 19:40:00,34.6,20.1,30.21,NW,308,0.0,0.0,55,0.00,,,0.00,Wunderground v.1.15,2013-04-02 00:40:00,
2013-04-01 19:43:00,34.4,20.7,30.21,NNW,337,0.0,1.0,57,0.00,,,0.00,Wunderground v.1.15,2013-04-02 00:43:00,
2013-04-01 19:45:00,34.2,20.5,30.21,NNW,332,0.0,1.0,57,0.00,,,0.00,Wunderground v.1.15,2013-04-02 00:45:00,
2013-04-01 19:48:00,34.0,20.8,30.21,North,360,0.0,1.0,58,0.00,,,0.00,Wunderground v.1.15,2013-04-02 00:48:00,
2013-04-01 19:49:00,34.0,20.8,30.21,NNW,338,0.0,1.0,58,0.00,,,0.00,Wunderground v.1.15,2013-04-02 00:49:00,
2013-04-01 19:50:00,33.9,20.7,30.21,NW,318,0.0,0.0,58,0.00,,,0.00,Wunderground v.1.15,2013-04-02 00:50:00,
2013-04-01 19:51:00,33.8,21.0,30.21,NNW,338,0.0,1.0,59,0.00,,,0.00,Wunderground v.1.15,2013-04-02 00:51:00,
2013-04-01 19:55:00,33.5,20.7,30.21,NW,312,0.0,1.0,59,0.00,,,0.00,Wunderground v.1.15,2013-04-02 00:55:00,
2013-04-01 19:57:00,33.5,20.3,30.21,NW,309,0.0,1.0,58,0.00,,,0.00,Wunderground v.1.15,2013-04-02 00:57:00,
2013-04-01 19:58:00,33.4,20.2,30.21,NNW,328,0.0,1.0,58,0.00,,,0.00,Wunderground v.1.15,2013-04-02 00:58:00,
2013-04-01 20:01:00,33.3,20.5,30.21,NW,318,0.0,0.0,59,0.00,,,0.00,Wunderground v.1.15,2013-04-02 01:01:00,
2013-04-01 20:03:00,33.2,20.4,30.21,NNW,327,0.0,1.0,59,0.00,,,0.00,Wunderground v.1.15,2013-04-02 01:03:00,
2013-04-01 20:05:00,33.0,20.2,30.21,NW,304,0.0,1.0,59,0.00,,,0.00,Wunderground v.1.15,2013-04-02 01:05:00,
2013-04-01 20:06:00,33.0,20.2,30.21,NW,324,0.0,1.0,59,0.00,,,0.00,Wunderground v.1.15,2013-04-02 01:06:00,
2013-04-01 20:10:00,32.9,20.5,30.22,North,5,0.0,0.0,60,0.00,,,0.00,Wunderground v.1.15,2013-04-02 01:10:00,
2013-04-01 20:11:00,32.8,20.4,30.22,NW,325,0.0,0.0,60,0.00,,,0.00,Wunderground v.1.15,2013-04-02 01:11:00,
2013-04-01 20:12:00,32.8,20.4,30.22,NNW,331,0.0,0.0,60,0.00,,,0.00,Wunderground v.1.15,2013-04-02 01:12:00,
2013-04-01 20:13:00,32.7,20.3,30.22,NW,316,0.0,0.0,60,0.00,,,0.00,Wunderground v.1.15,2013-04-02 01:13:00,
2013-04-01 20:18:00,32.5,20.5,30.22,NNW,328,0.0,0.0,61,0.00,,,0.00,Wunderground v.1.15,2013-04-02 01:18:00,
2013-04-01 20:19:00,32.5,20.5,30.22,North,1,0.0,0.0,61,0.00,,,0.00,Wunderground v.1.15,2013-04-02 01:19:00,
2013-04-01 20:21:00,32.4,20.4,30.22,NW,311,0.0,0.0,61,0.00,,,0.00,Wunderground v.1.15,2013-04-02 01:21:00,
2013-04-01 20:22:00,32.4,20.4,30.22,NW,326,0.0,0.0,61,0.00,,,0.00,Wunderground v.1.15,2013-04-02 01:22:00,
2013-04-01 20:24:00,32.3,20.3,30.22,NNW,331,0.0,0.0,61,0.00,,,0.00,Wunderground v.1.15,2013-04-02 01:24:00,
2013-04-01 20:25:00,32.2,20.6,30.22,NW,322,0.0,0.0,62,0.00,,,0.00,Wunderground v.1.15,2013-04-02 01:25:00,
2013-04-01 20:26:00,32.2,20.6,30.22,NNW,339,0.0,0.0,62,0.00,,,0.00,Wunderground v.1.15,2013-04-02 01:26:00,
2013-04-01 20:27:00,32.1,20.5,30.22,NNW,331,0.0,0.0,62,0.00,,,0.00,Wunderground v.1.15,2013-04-02 01:27:00,
2013-04-01 20:31:00,32.0,20.8,30.22,NNW,333,0.0,0.0,63,0.00,,,0.00,Wunderground v.1.15,2013-04-02 01:31:00,
2013-04-01 20:33:00,31.9,20.7,30.22,NNW,334,0.0,0.0,63,0.00,,,0.00,Wunderground v.1.15,2013-04-02 01:33:00,
2013-04-01 20:34:00,31.8,20.6,30.22,NW,311,0.0,0.0,63,0.00,,,0.00,Wunderground v.1.15,2013-04-02 01:34:00,
2013-04-01 20:35:00,31.8,20.6,30.22,NW,322,0.0,0.0,63,0.00,,,0.00,Wunderground v.1.15,2013-04-02 01:35:00,
2013-04-01 20:39:00,31.7,20.9,30.22,NW,316,0.0,0.0,64,0.00,,,0.00,Wunderground v.1.15,2013-04-02 01:39:00,
2013-04-01 20:40:00,31.6,20.8,30.22,NNW,327,0.0,0.0,64,0.00,,,0.00,Wunderground v.1.15,2013-04-02 01:40:00,
2013-04-01 20:43:00,31.5,20.7,30.22,NNW,331,0.0,0.0,64,0.00,,,0.00,Wunderground v.1.15,2013-04-02 01:43:00,
2013-04-01 20:44:00,31.5,20.7,30.22,WNW,289,0.0,0.0,64,0.00,,,0.00,Wunderground v.1.15,2013-04-02 01:44:00,
2013-04-01 20:45:00,31.5,20.7,30.22,NNW,342,0.0,1.0,64,0.00,,,0.00,Wunderground v.1.15,2013-04-02 01:45:00,
2013-04-01 20:47:00,31.4,20.6,30.22,NW,319,0.0,1.0,64,0.00,,,0.00,Wunderground v.1.15,2013-04-02 01:47:00,
2013-04-01 20:49:00,31.4,21.0,30.22,NW,316,0.0,1.0,65,0.00,,,0.00,Wunderground v.1.15,2013-04-02 01:49:00,
2013-04-01 20:50:00,31.4,21.0,30.23,NNW,327,0.0,0.0,65,0.00,,,0.00,Wunderground v.1.15,2013-04-02 01:50:00,
2013-04-01 20:52:00,31.2,20.8,30.23,NNW,328,0.0,0.0,65,0.00,,,0.00,Wunderground v.1.15,2013-04-02 01:52:00,
2013-04-01 20:54:00,31.1,21.1,30.23,NW,321,0.0,0.0,66,0.00,,,0.00,Wunderground v.1.15,2013-04-02 01:54:00,
2013-04-01 20:55:00,31.1,21.1,30.23,NNW,327,0.0,0.0,66,0.00,,,0.00,Wunderground v.1.15,2013-04-02 01:55:00,
2013-04-01 21:00:00,30.7,21.0,30.23,NNW,334,0.0,0.0,67,0.00,,,0.00,Wunderground v.1.15,2013-04-02 02:00:00,
2013-04-01 21:02:00,30.6,20.9,30.23,NW,322,0.0,0.0,67,0.00,,,0.00,Wunderground v.1.15,2013-04-02 02:02:00,
2013-04-01 21:03:00,30.7,21.0,30.23,NNW,329,0.0,0.0,67,0.00,,,0.00,Wunderground v.1.15,2013-04-02 02:03:00,
2013-04-01 21:05:00,30.7,21.0,30.23,NW,324,0.0,0.0,67,0.00,,,0.00,Wunderground v.1.15,2013-04-02 02:05:00,
2013-04-01 21:08:00,30.6,20.9,30.23,NW,324,0.0,1.0,67,0.00,,,0.00,Wunderground v.1.15,2013-04-02 02:08:00,
2013-04-01 21:09:00,30.6,20.9,30.23,NW,322,0.0,1.0,67,0.00,,,0.00,Wunderground v.1.15,2013-04-02 02:09:00,
2013-04-01 21:14:00,30.4,20.7,30.23,NW,307,0.0,0.0,67,0.00,,,0.00,Wunderground v.1.15,2013-04-02 02:14:00,
2013-04-01 21:15:00,30.3,20.6,30.23,NNW,330,0.0,0.0,67,0.00,,,0.00,Wunderground v.1.15,2013-04-02 02:15:00,
2013-04-01 21:18:00,30.3,20.6,30.23,NW,318,0.0,0.0,67,0.00,,,0.00,Wunderground v.1.15,2013-04-02 02:18:00,
2013-04-01 21:19:00,30.2,20.9,30.23,NNW,328,0.0,0.0,68,0.00,,,0.00,Wunderground v.1.15,2013-04-02 02:19:00,
2013-04-01 21:20:00,30.2,20.9,30.23,WNW,301,0.0,0.0,68,0.00,,,0.00,Wunderground v.1.15,2013-04-02 02:20:00,
2013-04-01 21:23:00,30.1,20.8,30.24,NW,314,0.0,0.0,68,0.00,,,0.00,Wunderground v.1.15,2013-04-02 02:23:00,
2013-04-01 21:24:00,30.1,20.8,30.23,NW,318,0.0,0.0,68,0.00,,,0.00,Wunderground v.1.15,2013-04-02 02:24:00,
2013-04-01 21:26:00,30.0,21.1,30.23,NNW,334,0.0,0.0,69,0.00,,,0.00,Wunderground v.1.15,2013-04-02 02:26:00,
2013-04-01 21:27:00,29.9,21.0,30.24,NNW,334,0.0,0.0,69,0.00,,,0.00,Wunderground v.1.15,2013-04-02 02:27:00,
2013-04-01 21:31:00,29.6,21.0,30.24,NNW,329,0.0,0.0,70,0.00,,,0.00,Wunderground v.1.15,2013-04-02 02:31:00,
2013-04-01 21:32:00,29.5,20.9,30.24,NNW,329,0.0,0.0,70,0.00,,,0.00,Wunderground v.1.15,2013-04-02 02:32:00,
2013-04-01 21:35:00,29.4,21.2,30.24,NW,319,0.0,0.0,71,0.00,,,0.00,Wunderground v.1.15,2013-04-02 02:35:00,
2013-04-01 21:36:00,29.3,21.1,30.24,NW,319,0.0,0.0,71,0.00,,,0.00,Wunderground v.1.15,2013-04-02 02:36:00,
2013-04-01 21:40:00,29.1,20.9,30.24,NW,320,0.0,0.0,71,0.00,,,0.00,Wunderground v.1.15,2013-04-02 02:40:00,
2013-04-01 21:42:00,29.0,20.8,30.24,NW,322,0.0,0.0,71,0.00,,,0.00,Wunderground v.1.15,2013-04-02 02:42:00,
2013-04-01 21:44:00,28.9,20.7,30.24,NW,322,0.0,0.0,71,0.00,,,0.00,Wunderground v.1.15,2013-04-02 02:44:00,
2013-04-01 21:45:00,28.9,20.7,30.24,NW,322,0.0,0.0,71,0.00,,,0.00,Wunderground v.1.15,2013-04-02 02:45:00,
2013-04-01 21:47:00,28.8,20.9,30.24,NW,322,0.0,0.0,72,0.00,,,0.00,Wunderground v.1.15,2013-04-02 02:47:00,
2013-04-01 21:48:00,28.8,20.9,30.24,NW,322,0.0,0.0,72,0.00,,,0.00,Wunderground v.1.15,2013-04-02 02:48:00,
2013-04-01 21:49:00,28.7,20.8,30.24,NW,322,0.0,0.0,72,0.00,,,0.00,Wunderground v.1.15,2013-04-02 02:49:00,
2013-04-01 21:50:00,28.7,20.5,30.24,NW,322,0.0,0.0,71,0.00,,,0.00,Wunderground v.1.15,2013-04-02 02:50:00,
2013-04-01 21:53:00,28.6,20.7,30.24,NW,322,0.0,0.0,72,0.00,,,0.00,Wunderground v.1.15,2013-04-02 02:53:00,
2013-04-01 21:55:00,28.4,20.5,30.24,NW,322,0.0,0.0,72,0.00,,,0.00,Wunderground v.1.15,2013-04-02 02:55:00,
2013-04-01 21:56:00,28.4,20.5,30.24,NW,322,0.0,0.0,72,0.00,,,0.00,Wunderground v.1.15,2013-04-02 02:56:00,
2013-04-01 21:58:00,28.4,20.5,30.24,NW,322,0.0,0.0,72,0.00,,,0.00,Wunderground v.1.15,2013-04-02 02:58:00,
2013-04-01 21:59:00,28.3,20.4,30.24,NW,322,0.0,0.0,72,0.00,,,0.00,Wunderground v.1.15,2013-04-02 02:59:00,
2013-04-01 22:02:00,28.1,20.6,30.24,NW,322,0.0,0.0,73,0.00,,,0.00,Wunderground v.1.15,2013-04-02 03:02:00,
2013-04-01 22:05:00,27.9,20.4,30.25,NW,322,0.0,0.0,73,0.00,,,0.00,Wunderground v.1.15,2013-04-02 03:05:00,
2013-04-01 22:06:00,27.9,20.4,30.25,NW,322,0.0,0.0,73,0.00,,,0.00,Wunderground v.1.15,2013-04-02 03:06:00,
2013-04-01 22:07:00,27.8,20.3,30.25,NNW,334,0.0,0.0,73,0.00,,,0.00,Wunderground v.1.15,2013-04-02 03:07:00,
2013-04-01 22:10:00,27.7,20.2,30.25,NNW,334,0.0,0.0,73,0.00,,,0.00,Wunderground v.1.15,2013-04-02 03:10:00,
2013-04-01 22:13:00,27.7,20.2,30.25,NNW,331,0.0,0.0,73,0.00,,,0.00,Wunderground v.1.15,2013-04-02 03:13:00,
2013-04-01 22:15:00,27.8,20.3,30.25,NNW,331,0.0,0.0,73,0.00,,,0.00,Wunderground v.1.15,2013-04-02 03:15:00,
2013-04-01 22:18:00,27.8,20.3,30.25,NNW,331,0.0,0.0,73,0.00,,,0.00,Wunderground v.1.15,2013-04-02 03:18:00,
2013-04-01 22:19:00,27.8,20.3,30.25,NNW,332,0.0,0.0,73,0.00,,,0.00,Wunderground v.1.15,2013-04-02 03:19:00,
2013-04-01 22:20:00,27.8,20.3,30.25,NNW,332,0.0,0.0,73,0.00,,,0.00,Wunderground v.1.15,2013-04-02 03:20:00,
2013-04-01 22:23:00,27.7,20.2,30.25,NNW,331,0.0,0.0,73,0.00,,,0.00,Wunderground v.1.15,2013-04-02 03:23:00,
2013-04-01 22:24:00,27.7,20.2,30.25,NNW,331,0.0,0.0,73,0.00,,,0.00,Wunderground v.1.15,2013-04-02 03:24:00,
2013-04-01 22:25:00,27.7,20.2,30.25,NNW,331,0.0,0.0,73,0.00,,,0.00,Wunderground v.1.15,2013-04-02 03:25:00,
2013-04-01 22:28:00,27.6,20.1,30.25,NNW,331,0.0,0.0,73,0.00,,,0.00,Wunderground v.1.15,2013-04-02 03:28:00,
2013-04-01 22:29:00,27.6,20.1,30.25,NNW,332,0.0,0.0,73,0.00,,,0.00,Wunderground v.1.15,2013-04-02 03:29:00,
2013-04-01 22:30:00,27.6,20.1,30.25,NNW,331,0.0,0.0,73,0.00,,,0.00,Wunderground v.1.15,2013-04-02 03:30:00,
2013-04-01 22:31:00,27.6,20.1,30.25,NW,305,0.0,0.0,73,0.00,,,0.00,Wunderground v.1.15,2013-04-02 03:31:00,
2013-04-01 22:34:00,27.6,20.1,30.25,NNW,335,0.0,0.0,73,0.00,,,0.00,Wunderground v.1.15,2013-04-02 03:34:00,
2013-04-01 22:35:00,27.5,20.0,30.25,NNW,334,0.0,0.0,73,0.00,,,0.00,Wunderground v.1.15,2013-04-02 03:35:00,
2013-04-01 22:37:00,27.4,19.9,30.25,NW,321,0.0,0.0,73,0.00,,,0.00,Wunderground v.1.15,2013-04-02 03:37:00,
2013-04-01 22:38:00,27.3,19.8,30.25,NW,325,0.0,0.0,73,0.00,,,0.00,Wunderground v.1.15,2013-04-02 03:38:00,
2013-04-01 22:39:00,27.3,19.8,30.25,NNW,332,0.0,0.0,73,0.00,,,0.00,Wunderground v.1.15,2013-04-02 03:39:00,
2013-04-01 22:42:00,27.3,19.8,30.25,NW,322,0.0,0.0,73,0.00,,,0.00,Wunderground v.1.15,2013-04-02 03:42:00,
2013-04-01 22:43:00,27.3,19.8,30.25,NNW,327,0.0,0.0,73,0.00,,,0.00,Wunderground v.1.15,2013-04-02 03:43:00,
2013-04-01 22:48:00,27.3,19.8,30.25,NW,322,0.0,0.0,73,0.00,,,0.00,Wunderground v.1.15,2013-04-02 03:48:00,
2013-04-01 22:49:00,27.4,19.9,30.25,NW,321,0.0,0.0,73,0.00,,,0.00,Wunderground v.1.15,2013-04-02 03:49:00,
2013-04-01 22:51:00,27.4,19.9,30.25,NNW,332,0.0,0.0,73,0.00,,,0.00,Wunderground v.1.15,2013-04-02 03:51:00,
2013-04-01 22:53:00,27.4,20.2,30.25,NW,311,0.0,0.0,74,0.00,,,0.00,Wunderground v.1.15,2013-04-02 03:53:00,
2013-04-01 22:54:00,27.4,20.2,30.25,NW,318,0.0,0.0,74,0.00,,,0.00,Wunderground v.1.15,2013-04-02 03:54:00,
2013-04-01 22:55:00,27.4,20.2,30.25,NNW,327,0.0,0.0,74,0.00,,,0.00,Wunderground v.1.15,2013-04-02 03:55:00,
2013-04-01 23:00:00,27.3,20.1,30.25,NW,322,0.0,0.0,74,0.00,,,0.00,Wunderground v.1.15,2013-04-02 04:00:00,
2013-04-01 23:01:00,27.3,20.1,30.25,WNW,300,0.0,0.0,74,0.00,,,0.00,Wunderground v.1.15,2013-04-02 04:01:00,
2013-04-01 23:06:00,27.1,20.2,30.25,NW,308,0.0,0.0,75,0.00,,,0.00,Wunderground v.1.15,2013-04-02 04:06:00,
2013-04-01 23:07:00,27.1,20.2,30.25,WNW,300,0.0,0.0,75,0.00,,,0.00,Wunderground v.1.15,2013-04-02 04:07:00,
2013-04-01 23:13:00,27.1,20.5,30.25,NNW,331,0.0,0.0,76,0.00,,,0.00,Wunderground v.1.15,2013-04-02 04:13:00,
2013-04-01 23:14:00,27.2,20.6,30.25,NW,322,0.0,0.0,76,0.00,,,0.00,Wunderground v.1.15,2013-04-02 04:14:00,
2013-04-01 23:15:00,27.2,20.6,30.25,NNW,339,0.0,0.0,76,0.00,,,0.00,Wunderground v.1.15,2013-04-02 04:15:00,
2013-04-01 23:18:00,27.3,20.4,30.25,NNW,328,0.0,0.0,75,0.00,,,0.00,Wunderground v.1.15,2013-04-02 04:18:00,
2013-04-01 23:19:00,27.3,20.4,30.25,NNW,338,0.0,0.0,75,0.00,,,0.00,Wunderground v.1.15,2013-04-02 04:19:00,
2013-04-01 23:21:00,27.4,20.5,30.25,NNW,329,0.0,0.0,75,0.00,,,0.00,Wunderground v.1.15,2013-04-02 04:21:00,
2013-04-01 23:25:00,27.5,20.6,30.25,NNW,336,0.0,0.0,75,0.00,,,0.00,Wunderground v.1.15,2013-04-02 04:25:00,
2013-04-01 23:26:00,27.5,20.6,30.25,NNW,329,0.0,0.0,75,0.00,,,0.00,Wunderground v.1.15,2013-04-02 04:26:00,
2013-04-01 23:28:00,27.5,20.6,30.25,NNW,331,0.0,0.0,75,0.00,,,0.00,Wunderground v.1.15,2013-04-02 04:28:00,
2013-04-01 23:30:00,27.6,20.4,30.25,WNW,300,0.0,0.0,74,0.00,,,0.00,Wunderground v.1.15,2013-04-02 04:30:00,
2013-04-01 23:31:00,27.6,20.4,30.25,NNW,342,0.0,0.0,74,0.00,,,0.00,Wunderground v.1.15,2013-04-02 04:31:00,
2013-04-01 23:33:00,27.6,20.4,30.25,WNW,298,0.0,0.0,74,0.00,,,0.00,Wunderground v.1.15,2013-04-02 04:33:00,
2013-04-01 23:34:00,27.6,20.4,30.25,NNW,336,0.0,0.0,74,0.00,,,0.00,Wunderground v.1.15,2013-04-02 04:34:00,
2013-04-01 23:38:00,27.7,20.5,30.25,NW,304,0.0,0.0,74,0.00,,,0.00,Wunderground v.1.15,2013-04-02 04:38:00,
2013-04-01 23:39:00,27.7,20.5,30.25,NNW,340,0.0,0.0,74,0.00,,,0.00,Wunderground v.1.15,2013-04-02 04:39:00,
2013-04-01 23:40:00,27.7,20.5,30.25,NNW,342,0.0,0.0,74,0.00,,,0.00,Wunderground v.1.15,2013-04-02 04:40:00,
2013-04-01 23:43:00,27.6,20.4,30.25,NW,322,0.0,0.0,74,0.00,,,0.00,Wunderground v.1.15,2013-04-02 04:43:00,
2013-04-01 23:46:00,27.5,20.3,30.25,NW,316,0.0,0.0,74,0.00,,,0.00,Wunderground v.1.15,2013-04-02 04:46:00,
2013-04-01 23:47:00,27.5,20.3,30.25,NW,322,0.0,0.0,74,0.00,,,0.00,Wunderground v.1.15,2013-04-02 04:47:00,
2013-04-01 23:49:00,27.4,20.2,30.25,NW,312,0.0,0.0,74,0.00,,,0.00,Wunderground v.1.15,2013-04-02 04:49:00,
2013-04-01 23:50:00,27.4,20.2,30.25,NW,313,0.0,0.0,74,0.00,,,0.00,Wunderground v.1.15,2013-04-02 04:50:00,
2013-04-01 23:53:00,27.4,20.2,30.25,NW,319,0.0,0.0,74,0.00,,,0.00,Wunderground v.1.15,2013-04-02 04:53:00,
2013-04-01 23:54:00,27.4,20.2,30.25,NW,326,0.0,0.0,74,0.00,,,0.00,Wunderground v.1.15,2013-04-02 04:54:00,
2013-04-01 23:59:00,27.3,20.1,30.26,NW,318,0.0,0.0,74,0.00,,,0.00,Wunderground v.1.15,2013-04-02 04:59:00,